Wetterdaten: Mittwoch, 12.07.2017
Datum Zeit Temp. Aussen Temp. o. S. +5cm Feuchte Auss BlattFeu 1 Luftdruck Regen Sonnenschein Regendauer Solar Windben Empfang
12.07.2017 00:00 18,4 C 17,8 C 17,2 C 87 % 1 lf 1010,2 hPa 0,0 l/m 0 min 0 min 0 W/m 6,3 km/h (2 Bft) 100,00 %
12.07.2017 00:02 18,4 C 17,8 C 16,7 C 87 % 1 lf 1010,2 hPa 0,0 l/m 0 min 0 min 0 W/m 4,2 km/h (1 Bft) 100,00 %
12.07.2017 00:04 18,4 C 17,8 C 16,7 C 87 % 1 lf 1010,3 hPa 0,0 l/m 0 min 0 min 0 W/m 2,1 km/h (1 Bft) 95,74 %
12.07.2017 00:06 18,4 C 17,8 C 16,7 C 87 % 1 lf 1010,2 hPa 0,0 l/m 0 min 0 min 0 W/m 4,2 km/h (1 Bft) 96,36 %
12.07.2017 00:10 18,4 C 17,8 C 16,7 C 87 % 1 lf 1010,3 hPa 0,0 l/m 0 min 0 min 0 W/m 4,2 km/h (1 Bft) 94,12 %
12.07.2017 00:12 18,4 C 17,8 C 16,7 C 87 % 1 lf 1010,3 hPa 0,0 l/m 0 min 0 min 0 W/m 6,3 km/h (2 Bft) 95,74 %
12.07.2017 00:14 18,3 C 17,8 C 16,7 C 87 % 1 lf 1010,3 hPa 0,0 l/m 0 min 2 min 0 W/m 6,3 km/h (2 Bft) 100,00 %
12.07.2017 00:16 18,3 C 17,2 C 16,7 C 88 % 2 lf 1010,4 hPa 0,0 l/m 0 min 2 min 0 W/m 4,2 km/h (1 Bft) 97,87 %
12.07.2017 00:18 18,3 C 17,2 C 16,7 C 88 % 4 lf 1010,3 hPa 0,0 l/m 0 min 2 min 0 W/m 4,2 km/h (1 Bft) 97,83 %
12.07.2017 00:20 18,3 C 17,2 C 16,7 C 88 % 8 lf 1010,3 hPa 0,0 l/m 0 min 2 min 0 W/m 4,2 km/h (1 Bft) 100,00 %
12.07.2017 00:22 18,3 C 17,2 C 16,7 C 88 % 4 lf 1010,3 hPa 0,0 l/m 0 min 2 min 0 W/m 4,2 km/h (1 Bft) 95,74 %
12.07.2017 00:24 18,3 C 17,2 C 16,1 C 88 % 4 lf 1010,2 hPa 0,0 l/m 0 min 2 min 0 W/m 4,2 km/h (1 Bft) 100,00 %
12.07.2017 00:26 18,3 C 17,2 C 16,1 C 88 % 4 lf 1010,3 hPa 0,0 l/m 0 min 2 min 0 W/m 6,3 km/h (2 Bft) 95,74 %
12.07.2017 00:28 18,3 C 17,2 C 16,1 C 89 % 15 lf 1010,2 hPa 0,0 l/m 0 min 2 min 0 W/m 4,2 km/h (1 Bft) 97,87 %
12.07.2017 00:30 18,3 C 16,7 C 16,1 C 89 % 15 lf 1010,2 hPa 0,0 l/m 0 min 2 min 0 W/m 4,2 km/h (1 Bft) 97,83 %
12.07.2017 00:32 18,3 C 16,7 C 16,1 C 89 % 15 lf 1010,2 hPa 0,0 l/m 0 min 2 min 0 W/m 8,4 km/h (2 Bft) 95,74 %
12.07.2017 00:34 18,3 C 16,7 C 16,1 C 89 % 15 lf 1010,2 hPa 0,0 l/m 0 min 2 min 0 W/m 6,3 km/h (2 Bft) 95,74 %
12.07.2017 00:36 18,2 C 16,7 C 16,1 C 89 % 15 lf 1010,2 hPa 0,0 l/m 0 min 2 min 0 W/m 6,3 km/h (2 Bft) 95,74 %
12.07.2017 00:38 18,2 C 16,7 C 16,1 C 89 % 15 lf 1010,3 hPa 0,0 l/m 0 min 2 min 0 W/m 8,4 km/h (2 Bft) 87,23 %
12.07.2017 00:40 18,2 C 16,7 C 15,6 C 89 % 15 lf 1010,2 hPa 0,2 l/m 0 min 2 min 0 W/m 10,5 km/h (2 Bft) 93,62 %
12.07.2017 00:42 18,2 C 16,7 C 15,6 C 89 % 15 lf 1010,2 hPa 0,0 l/m 0 min 2 min 0 W/m 8,4 km/h (2 Bft) 95,65 %
12.07.2017 00:44 18,2 C 16,7 C 15,6 C 89 % 15 lf 1010,2 hPa 0,0 l/m 0 min 0 min 0 W/m 6,3 km/h (2 Bft) 91,49 %
12.07.2017 00:46 18,2 C 16,7 C 15,6 C 89 % 15 lf 1010,1 hPa 0,0 l/m 0 min 0 min 0 W/m 8,4 km/h (2 Bft) 95,74 %
12.07.2017 00:48 18,1 C 16,7 C 15,6 C 89 % 15 lf 1010,1 hPa 0,0 l/m 0 min 0 min 0 W/m 8,4 km/h (2 Bft) 93,62 %
12.07.2017 00:50 18,1 C 16,7 C 15,6 C 89 % 15 lf 1010,1 hPa 0,0 l/m 0 min 0 min 0 W/m 12,6 km/h (3 Bft) 93,62 %
12.07.2017 00:52 18,1 C 16,7 C 15,6 C 89 % 15 lf 1010,1 hPa 0,0 l/m 0 min 0 min 0 W/m 8,4 km/h (2 Bft) 95,74 %
12.07.2017 00:54 18,0 C 16,7 C 15,6 C 89 % 15 lf 1010,1 hPa 0,0 l/m 0 min 0 min 0 W/m 8,4 km/h (2 Bft) 95,65 %
12.07.2017 00:56 17,9 C 16,7 C 15,6 C 89 % 15 lf 1010,1 hPa 0,0 l/m 0 min 0 min 0 W/m 10,5 km/h (2 Bft) 95,74 %
12.07.2017 00:58 17,9 C 16,7 C 15,6 C 89 % 15 lf 1010,1 hPa 0,0 l/m 0 min 0 min 0 W/m 8,4 km/h (2 Bft) 91,49 %
12.07.2017 01:00 17,9 C 16,7 C 15,6 C 89 % 15 lf 1010,2 hPa 0,0 l/m 0 min 0 min 0 W/m 12,6 km/h (3 Bft) 95,74 %
12.07.2017 01:02 17,9 C 16,7 C 15,6 C 89 % 15 lf 1010,1 hPa 0,0 l/m 0 min 0 min 0 W/m 12,6 km/h (3 Bft) 93,62 %
12.07.2017 01:04 17,8 C 16,7 C 15,6 C 89 % 15 lf 1010,2 hPa 0,0 l/m 0 min 0 min 0 W/m 10,5 km/h (2 Bft) 93,62 %
12.07.2017 01:06 17,8 C 16,7 C 15,6 C 89 % 14 lf 1010,2 hPa 0,0 l/m 0 min 0 min 0 W/m 18,8 km/h (3 Bft) 84,78 %
12.07.2017 01:08 17,8 C 16,7 C 15,6 C 89 % 11 lf 1010,3 hPa 0,0 l/m 0 min 0 min 0 W/m 14,6 km/h (3 Bft) 91,49 %
12.07.2017 01:10 17,7 C 16,7 C 15,6 C 88 % 4 lf 1010,3 hPa 0,0 l/m 0 min 0 min 0 W/m 12,6 km/h (3 Bft) 93,62 %
12.07.2017 01:12 17,7 C 16,7 C 15,6 C 88 % 1 lf 1010,3 hPa 0,0 l/m 0 min 0 min 0 W/m 20,9 km/h (4 Bft) 91,49 %
12.07.2017 01:14 17,7 C 17,2 C 15,6 C 88 % 1 lf 1010,3 hPa 0,0 l/m 0 min 0 min 0 W/m 23,0 km/h (4 Bft) 91,49 %
12.07.2017 01:16 17,6 C 17,2 C 15,6 C 88 % 1 lf 1010,3 hPa 0,0 l/m 0 min 0 min 0 W/m 16,7 km/h (3 Bft) 91,30 %
12.07.2017 01:18 17,6 C 17,2 C 15,6 C 88 % 3 lf 1010,1 hPa 0,0 l/m 0 min 2 min 0 W/m 16,7 km/h (3 Bft) 91,49 %
12.07.2017 01:20 17,6 C 17,2 C 15,6 C 88 % 13 lf 1010,2 hPa 0,0 l/m 0 min 2 min 0 W/m 16,7 km/h (3 Bft) 93,62 %
12.07.2017 01:22 17,6 C 16,7 C 15,6 C 88 % 13 lf 1010,2 hPa 0,0 l/m 0 min 2 min 0 W/m 20,9 km/h (4 Bft) 93,62 %
12.07.2017 01:24 17,6 C 16,7 C 15,6 C 88 % 12 lf 1010,1 hPa 0,0 l/m 0 min 0 min 0 W/m 18,8 km/h (3 Bft) 93,62 %
12.07.2017 01:26 17,6 C 16,7 C 15,6 C 88 % 12 lf 1010,1 hPa 0,0 l/m 0 min 0 min 0 W/m 12,6 km/h (3 Bft) 93,62 %
12.07.2017 01:28 17,6 C 16,7 C 15,6 C 88 % 14 lf 1010,1 hPa 0,0 l/m 0 min 2 min 0 W/m 10,5 km/h (2 Bft) 95,65 %
12.07.2017 01:30 17,6 C 16,7 C 15,6 C 88 % 15 lf 1010,1 hPa 0,0 l/m 0 min 2 min 3 W/m 6,3 km/h (2 Bft) 95,74 %
12.07.2017 01:32 17,6 C 16,7 C 15,6 C 88 % 14 lf 1010,1 hPa 0,0 l/m 0 min 2 min 0 W/m 6,3 km/h (2 Bft) 95,74 %
12.07.2017 01:34 17,5 C 16,7 C 15,6 C 88 % 13 lf 1010,1 hPa 0,0 l/m 0 min 0 min 0 W/m 8,4 km/h (2 Bft) 97,87 %
12.07.2017 01:36 17,5 C 16,7 C 15,6 C 89 % 13 lf 1010,1 hPa 0,0 l/m 0 min 0 min 0 W/m 6,3 km/h (2 Bft) 97,87 %
12.07.2017 01:38 17,5 C 16,7 C 15,6 C 89 % 13 lf 1010,1 hPa 0,0 l/m 0 min 2 min 0 W/m 8,4 km/h (2 Bft) 97,87 %
12.07.2017 01:40 17,5 C 16,7 C 15,0 C 89 % 14 lf 1009,9 hPa 0,0 l/m 0 min 2 min 0 W/m 2,1 km/h (1 Bft) 93,48 %
12.07.2017 01:42 17,5 C 16,7 C 15,0 C 89 % 15 lf 1009,9 hPa 0,0 l/m 0 min 2 min 0 W/m 8,4 km/h (2 Bft) 97,87 %
12.07.2017 01:44 17,5 C 16,7 C 15,0 C 89 % 15 lf 1009,9 hPa 0,0 l/m 0 min 2 min 0 W/m 8,4 km/h (2 Bft) 97,87 %
12.07.2017 01:46 17,4 C 16,7 C 15,0 C 89 % 15 lf 1009,9 hPa 0,0 l/m 0 min 2 min 0 W/m 6,3 km/h (2 Bft) 93,62 %
12.07.2017 01:48 17,4 C 16,1 C 15,0 C 89 % 15 lf 1009,9 hPa 0,0 l/m 0 min 2 min 0 W/m 6,3 km/h (2 Bft) 97,87 %
12.07.2017 01:50 17,4 C 16,1 C 15,0 C 89 % 15 lf 1009,9 hPa 0,0 l/m 0 min 0 min 0 W/m 4,2 km/h (1 Bft) 95,74 %
12.07.2017 01:52 17,4 C 16,1 C 15,0 C 89 % 15 lf 1009,9 hPa 0,0 l/m 0 min 0 min 0 W/m 4,2 km/h (1 Bft) 97,83 %
12.07.2017 01:54 17,4 C 16,1 C 15,0 C 89 % 14 lf 1009,8 hPa 0,0 l/m 0 min 0 min 0 W/m 0,0 km/h (0 Bft) 97,87 %
12.07.2017 01:56 17,4 C 16,1 C 15,0 C 89 % 13 lf 1009,8 hPa 0,0 l/m 0 min 0 min 0 W/m 2,1 km/h (1 Bft) 95,74 %
12.07.2017 01:58 17,4 C 16,1 C 15,0 C 89 % 12 lf 1009,8 hPa 0,0 l/m 0 min 0 min 0 W/m 2,1 km/h (1 Bft) 97,87 %
12.07.2017 02:00 17,4 C 16,1 C 15,0 C 89 % 10 lf 1009,7 hPa 0,0 l/m 0 min 0 min 0 W/m 4,2 km/h (1 Bft) 95,74 %
12.07.2017 02:02 17,3 C 16,1 C 15,0 C 89 % 5 lf 1009,7 hPa 0,0 l/m 0 min 0 min 0 W/m 6,3 km/h (2 Bft) 95,74 %
12.07.2017 02:04 17,3 C 16,1 C 15,0 C 89 % 3 lf 1009,7 hPa 0,0 l/m 0 min 0 min 0 W/m 4,2 km/h (1 Bft) 97,83 %
12.07.2017 02:06 17,3 C 16,1 C 15,0 C 89 % 3 lf 1009,7 hPa 0,0 l/m 0 min 0 min 0 W/m 2,1 km/h (1 Bft) 95,74 %
12.07.2017 02:08 17,3 C 16,1 C 15,0 C 89 % 2 lf 1009,6 hPa 0,0 l/m 0 min 0 min 0 W/m 2,1 km/h (1 Bft) 100,00 %
12.07.2017 02:10 17,3 C 16,1 C 15,0 C 90 % 1 lf 1009,5 hPa 0,0 l/m 0 min 0 min 0 W/m 0,0 km/h (0 Bft) 100,00 %
12.07.2017 02:12 17,3 C 16,1 C 15,0 C 90 % 1 lf 1009,5 hPa 0,0 l/m 0 min 0 min 0 W/m 0,0 km/h (0 Bft) 97,87 %
12.07.2017 02:14 17,3 C 16,1 C 15,0 C 90 % 1 lf 1009,4 hPa 0,0 l/m 0 min 0 min 0 W/m 0,0 km/h (0 Bft) 100,00 %
12.07.2017 02:16 17,3 C 16,1 C 15,0 C 90 % 1 lf 1009,4 hPa 0,0 l/m 0 min 0 min 0 W/m 2,1 km/h (1 Bft) 100,00 %
12.07.2017 02:18 17,2 C 16,1 C 15,0 C 90 % 1 lf 1009,4 hPa 0,0 l/m 0 min 0 min 0 W/m 2,1 km/h (1 Bft) 100,00 %
12.07.2017 02:20 17,2 C 16,1 C 15,0 C 90 % 1 lf 1009,2 hPa 0,0 l/m 0 min 0 min 0 W/m 4,2 km/h (1 Bft) 97,87 %
12.07.2017 02:22 17,2 C 16,1 C 15,0 C 90 % 1 lf 1009,2 hPa 0,0 l/m 0 min 0 min 0 W/m 2,1 km/h (1 Bft) 98,11 %
12.07.2017 02:24 17,2 C 16,1 C 15,0 C 90 % 1 lf 1009,2 hPa 0,0 l/m 0 min 0 min 0 W/m 2,1 km/h (1 Bft) 100,00 %
12.07.2017 02:26 17,2 C 16,1 C 15,0 C 90 % 1 lf 1009,2 hPa 0,0 l/m 0 min 0 min 0 W/m 4,2 km/h (1 Bft) 97,87 %
12.07.2017 02:28 17,2 C 16,1 C 15,6 C 90 % 1 lf 1009,2 hPa 0,0 l/m 0 min 0 min 0 W/m 2,1 km/h (1 Bft) 97,87 %
12.07.2017 02:30 17,2 C 16,1 C 15,6 C 90 % 1 lf 1009,2 hPa 0,0 l/m 0 min 0 min 0 W/m 0,0 km/h (0 Bft) 97,87 %
12.07.2017 02:32 17,1 C 16,1 C 15,6 C 90 % 1 lf 1009,2 hPa 0,0 l/m 0 min 0 min 0 W/m 2,1 km/h (1 Bft) 93,62 %
12.07.2017 02:34 17,1 C 16,1 C 15,6 C 90 % 1 lf 1009,2 hPa 0,0 l/m 0 min 0 min 0 W/m 4,2 km/h (1 Bft) 97,87 %
12.07.2017 02:36 17,1 C 16,1 C 15,6 C 90 % 1 lf 1009,1 hPa 0,0 l/m 0 min 0 min 0 W/m 4,2 km/h (1 Bft) 97,87 %
12.07.2017 02:38 17,1 C 16,1 C 15,6 C 90 % 1 lf 1009,1 hPa 0,0 l/m 0 min 0 min 0 W/m 2,1 km/h (1 Bft) 97,87 %
12.07.2017 02:40 17,1 C 16,1 C 15,6 C 90 % 1 lf 1009,1 hPa 0,0 l/m 0 min 0 min 0 W/m 2,1 km/h (1 Bft) 100,00 %
12.07.2017 02:42 17,1 C 16,1 C 15,6 C 90 % 1 lf 1009,1 hPa 0,0 l/m 0 min 0 min 0 W/m 2,1 km/h (1 Bft) 97,87 %
12.07.2017 02:44 17,1 C 16,1 C 15,6 C 90 % 1 lf 1009,1 hPa 0,0 l/m 0 min 0 min 0 W/m 2,1 km/h (1 Bft) 97,83 %
12.07.2017 02:46 17,1 C 16,1 C 15,6 C 90 % 1 lf 1009,1 hPa 0,0 l/m 0 min 0 min 0 W/m 2,1 km/h (1 Bft) 95,74 %
12.07.2017 02:48 17,0 C 16,1 C 15,6 C 90 % 1 lf 1009,0 hPa 0,0 l/m 0 min 0 min 0 W/m 4,2 km/h (1 Bft) 100,00 %
12.07.2017 02:50 17,0 C 16,1 C 15,6 C 90 % 1 lf 1009,0 hPa 0,0 l/m 0 min 0 min 0 W/m 4,2 km/h (1 Bft) 97,87 %
12.07.2017 02:52 17,0 C 16,1 C 15,6 C 90 % 1 lf 1009,0 hPa 0,0 l/m 0 min 0 min 0 W/m 2,1 km/h (1 Bft) 100,00 %
12.07.2017 02:54 17,0 C 16,1 C 15,6 C 91 % 1 lf 1009,0 hPa 0,0 l/m 0 min 0 min 0 W/m 4,2 km/h (1 Bft) 95,65 %
12.07.2017 02:56 17,0 C 16,7 C 15,6 C 91 % 1 lf 1008,9 hPa 0,0 l/m 0 min 0 min 0 W/m 6,3 km/h (2 Bft) 97,87 %
12.07.2017 02:58 17,0 C 16,7 C 15,6 C 91 % 1 lf 1008,9 hPa 0,0 l/m 0 min 0 min 0 W/m 6,3 km/h (2 Bft) 97,87 %
12.07.2017 03:00 17,0 C 16,7 C 15,6 C 91 % 1 lf 1008,9 hPa 0,0 l/m 0 min 0 min 0 W/m 4,2 km/h (1 Bft) 97,87 %
12.07.2017 03:02 17,0 C 16,7 C 15,6 C 91 % 1 lf 1008,9 hPa 0,0 l/m 0 min 0 min 0 W/m 4,2 km/h (1 Bft) 97,87 %
12.07.2017 03:04 17,0 C 16,7 C 15,6 C 91 % 1 lf 1008,9 hPa 0,0 l/m 0 min 0 min 0 W/m 6,3 km/h (2 Bft) 97,87 %
12.07.2017 03:06 16,9 C 16,7 C 15,6 C 91 % 1 lf 1008,9 hPa 0,0 l/m 0 min 0 min 0 W/m 4,2 km/h (1 Bft) 97,83 %
12.07.2017 03:08 16,9 C 16,7 C 15,6 C 91 % 1 lf 1009,0 hPa 0,0 l/m 0 min 0 min 0 W/m 4,2 km/h (1 Bft) 97,87 %
12.07.2017 03:10 16,9 C 16,7 C 15,6 C 91 % 1 lf 1008,9 hPa 0,0 l/m 0 min 0 min 0 W/m 6,3 km/h (2 Bft) 95,74 %
12.07.2017 03:12 16,9 C 16,7 C 15,6 C 91 % 1 lf 1008,8 hPa 0,0 l/m 0 min 0 min 0 W/m 6,3 km/h (2 Bft) 95,74 %
12.07.2017 03:14 16,9 C 16,7 C 15,6 C 91 % 1 lf 1008,8 hPa 0,0 l/m 0 min 0 min 0 W/m 4,2 km/h (1 Bft) 95,74 %
12.07.2017 03:16 16,9 C 16,7 C 15,6 C 92 % 1 lf 1008,8 hPa 0,0 l/m 0 min 0 min 0 W/m 0,0 km/h (0 Bft) 97,87 %
12.07.2017 03:18 16,9 C 16,7 C 15,6 C 92 % 1 lf 1008,8 hPa 0,0 l/m 0 min 0 min 0 W/m 8,4 km/h (2 Bft) 97,83 %
12.07.2017 03:20 16,9 C 16,7 C 15,6 C 92 % 1 lf 1008,8 hPa 0,0 l/m 0 min 0 min 0 W/m 8,4 km/h (2 Bft) 95,74 %
12.07.2017 03:22 16,9 C 16,7 C 15,6 C 92 % 1 lf 1008,8 hPa 0,0 l/m 0 min 0 min 0 W/m 6,3 km/h (2 Bft) 93,62 %
12.07.2017 03:24 16,9 C 16,1 C 15,6 C 92 % 1 lf 1008,9 hPa 0,0 l/m 0 min 2 min 0 W/m 8,4 km/h (2 Bft) 95,74 %
12.07.2017 03:26 16,9 C 16,1 C 15,6 C 92 % 2 lf 1008,8 hPa 0,0 l/m 0 min 2 min 0 W/m 10,5 km/h (2 Bft) 95,74 %
12.07.2017 03:28 16,8 C 16,1 C 15,0 C 92 % 1 lf 1008,8 hPa 0,0 l/m 0 min 2 min 0 W/m 8,4 km/h (2 Bft) 97,87 %
12.07.2017 03:30 16,8 C 16,1 C 15,0 C 92 % 2 lf 1008,8 hPa 0,0 l/m 0 min 2 min 0 W/m 8,4 km/h (2 Bft) 93,48 %
12.07.2017 03:32 16,8 C 16,1 C 15,0 C 92 % 2 lf 1008,9 hPa 0,0 l/m 0 min 2 min 0 W/m 6,3 km/h (2 Bft) 91,67 %
12.07.2017 03:34 16,8 C 16,1 C 15,0 C 92 % 2 lf 1008,8 hPa 0,0 l/m 0 min 2 min 0 W/m 8,4 km/h (2 Bft) 95,74 %
12.07.2017 03:36 16,8 C 16,1 C 15,0 C 92 % 2 lf 1008,8 hPa 0,0 l/m 0 min 2 min 0 W/m 8,4 km/h (2 Bft) 91,49 %
12.07.2017 03:38 16,8 C 16,1 C 15,0 C 92 % 3 lf 1008,8 hPa 0,0 l/m 0 min 2 min 0 W/m 8,4 km/h (2 Bft) 95,74 %
12.07.2017 03:40 16,8 C 16,1 C 15,0 C 92 % 2 lf 1008,7 hPa 0,0 l/m 0 min 0 min 0 W/m 8,4 km/h (2 Bft) 95,74 %
12.07.2017 03:42 16,8 C 16,1 C 15,0 C 92 % 2 lf 1008,7 hPa 0,0 l/m 0 min 0 min 0 W/m 8,4 km/h (2 Bft) 94,74 %
12.07.2017 03:44 16,8 C 16,1 C 15,0 C 92 % 2 lf 1008,7 hPa 0,0 l/m 0 min 0 min 0 W/m 8,4 km/h (2 Bft) 93,48 %
12.07.2017 03:46 16,8 C 16,1 C 15,0 C 93 % 3 lf 1008,6 hPa 0,0 l/m 0 min 0 min 0 W/m 4,2 km/h (1 Bft) 93,62 %
12.07.2017 03:48 16,8 C 16,1 C 15,0 C 93 % 3 lf 1008,5 hPa 0,0 l/m 0 min 0 min 0 W/m 2,1 km/h (1 Bft) 95,74 %
12.07.2017 03:50 16,8 C 16,1 C 15,0 C 93 % 3 lf 1008,5 hPa 0,0 l/m 0 min 0 min 0 W/m 4,2 km/h (1 Bft) 97,87 %
12.07.2017 03:52 16,8 C 16,1 C 15,0 C 93 % 15 lf 1008,5 hPa 0,0 l/m 0 min 2 min 0 W/m 6,3 km/h (2 Bft) 91,49 %
12.07.2017 03:54 16,8 C 15,6 C 15,0 C 93 % 15 lf 1008,5 hPa 0,0 l/m 0 min 2 min 0 W/m 4,2 km/h (1 Bft) 95,74 %
12.07.2017 03:56 16,7 C 15,6 C 15,0 C 93 % 15 lf 1008,5 hPa 0,0 l/m 0 min 2 min 0 W/m 4,2 km/h (1 Bft) 95,65 %
12.07.2017 03:58 16,7 C 15,6 C 15,0 C 93 % 15 lf 1008,4 hPa 0,2 l/m 0 min 2 min 0 W/m 6,3 km/h (2 Bft) 95,74 %
12.07.2017 04:00 16,7 C 15,6 C 15,0 C 93 % 15 lf 1008,5 hPa 0,0 l/m 0 min 2 min 0 W/m 4,2 km/h (1 Bft) 95,74 %
12.07.2017 04:02 16,7 C 15,6 C 15,0 C 93 % 15 lf 1008,5 hPa 0,0 l/m 0 min 2 min 0 W/m 2,1 km/h (1 Bft) 100,00 %
12.07.2017 04:04 16,7 C 15,6 C 15,0 C 93 % 15 lf 1008,4 hPa 0,0 l/m 0 min 2 min 0 W/m 8,4 km/h (2 Bft) 95,74 %
12.07.2017 04:06 16,7 C 15,6 C 15,0 C 93 % 15 lf 1008,4 hPa 0,0 l/m 0 min 2 min 0 W/m 6,3 km/h (2 Bft) 95,74 %
12.07.2017 04:08 16,7 C 15,6 C 15,0 C 93 % 15 lf 1008,5 hPa 0,0 l/m 0 min 2 min 0 W/m 8,4 km/h (2 Bft) 95,65 %
12.07.2017 04:10 16,7 C 15,6 C 15,0 C 93 % 15 lf 1008,3 hPa 0,2 l/m 0 min 2 min 0 W/m 6,3 km/h (2 Bft) 97,87 %
12.07.2017 04:12 16,7 C 15,6 C 15,0 C 93 % 15 lf 1008,3 hPa 0,0 l/m 0 min 2 min 0 W/m 2,1 km/h (1 Bft) 100,00 %
12.07.2017 04:14 16,7 C 15,6 C 15,0 C 93 % 15 lf 1008,3 hPa 0,0 l/m 0 min 2 min 0 W/m 6,3 km/h (2 Bft) 91,49 %
12.07.2017 04:16 16,7 C 15,6 C 15,0 C 93 % 15 lf 1008,3 hPa 0,0 l/m 0 min 0 min 0 W/m 4,2 km/h (1 Bft) 95,74 %
12.07.2017 04:18 16,7 C 15,6 C 15,0 C 94 % 15 lf 1008,2 hPa 0,0 l/m 0 min 0 min 0 W/m 8,4 km/h (2 Bft) 95,74 %
12.07.2017 04:20 16,7 C 15,6 C 15,0 C 94 % 15 lf 1008,1 hPa 0,0 l/m 0 min 0 min 0 W/m 6,3 km/h (2 Bft) 100,00 %
12.07.2017 04:22 16,7 C 15,6 C 15,0 C 94 % 15 lf 1008,1 hPa 0,0 l/m 0 min 0 min 0 W/m 8,4 km/h (2 Bft) 97,87 %
12.07.2017 04:24 16,7 C 15,6 C 15,0 C 94 % 15 lf 1008,1 hPa 0,0 l/m 0 min 0 min 0 W/m 6,3 km/h (2 Bft) 100,00 %
12.07.2017 04:26 16,7 C 15,6 C 15,0 C 94 % 15 lf 1008,0 hPa 0,0 l/m 0 min 0 min 0 W/m 12,6 km/h (3 Bft) 93,62 %
12.07.2017 04:28 16,7 C 15,6 C 15,0 C 94 % 15 lf 1008,0 hPa 0,0 l/m 0 min 0 min 0 W/m 10,5 km/h (2 Bft) 100,00 %
12.07.2017 04:30 16,7 C 15,6 C 15,0 C 94 % 15 lf 1008,1 hPa 0,0 l/m 0 min 0 min 0 W/m 8,4 km/h (2 Bft) 97,87 %
12.07.2017 04:32 16,7 C 15,6 C 15,0 C 94 % 15 lf 1008,0 hPa 0,0 l/m 0 min 2 min 0 W/m 8,4 km/h (2 Bft) 97,87 %
12.07.2017 04:34 16,7 C 15,6 C 15,0 C 94 % 15 lf 1007,9 hPa 0,0 l/m 0 min 0 min 0 W/m 8,4 km/h (2 Bft) 100,00 %
12.07.2017 04:36 16,7 C 15,6 C 15,0 C 94 % 15 lf 1007,9 hPa 0,0 l/m 0 min 0 min 0 W/m 10,5 km/h (2 Bft) 97,83 %
12.07.2017 04:38 16,7 C 15,6 C 15,0 C 94 % 15 lf 1007,9 hPa 0,0 l/m 0 min 0 min 0 W/m 8,4 km/h (2 Bft) 100,00 %
12.07.2017 04:40 16,7 C 15,6 C 15,0 C 94 % 15 lf 1007,8 hPa 0,0 l/m 0 min 0 min 0 W/m 6,3 km/h (2 Bft) 97,87 %
12.07.2017 04:42 16,7 C 15,6 C 15,0 C 94 % 15 lf 1007,9 hPa 0,0 l/m 0 min 0 min 0 W/m 4,2 km/h (1 Bft) 95,74 %
12.07.2017 04:44 16,7 C 15,6 C 15,0 C 94 % 15 lf 1007,8 hPa 0,0 l/m 0 min 0 min 0 W/m 8,4 km/h (2 Bft) 100,00 %
12.07.2017 04:46 16,7 C 15,6 C 15,0 C 94 % 15 lf 1007,8 hPa 0,0 l/m 0 min 0 min 0 W/m 6,3 km/h (2 Bft) 100,00 %
12.07.2017 04:48 16,6 C 15,6 C 15,0 C 94 % 15 lf 1007,8 hPa 0,0 l/m 0 min 0 min 0 W/m 8,4 km/h (2 Bft) 97,83 %
12.07.2017 04:50 16,6 C 15,6 C 15,0 C 94 % 15 lf 1007,8 hPa 0,0 l/m 0 min 0 min 0 W/m 8,4 km/h (2 Bft) 100,00 %
12.07.2017 04:52 16,6 C 15,6 C 15,0 C 94 % 15 lf 1007,7 hPa 0,0 l/m 0 min 2 min 0 W/m 6,3 km/h (2 Bft) 97,87 %
12.07.2017 04:54 16,6 C 15,6 C 15,0 C 94 % 15 lf 1007,8 hPa 0,0 l/m 0 min 2 min 0 W/m 6,3 km/h (2 Bft) 93,62 %
12.07.2017 04:56 16,6 C 15,6 C 15,0 C 94 % 15 lf 1007,8 hPa 0,0 l/m 0 min 2 min 0 W/m 6,3 km/h (2 Bft) 95,74 %
12.07.2017 04:58 16,6 C 15,6 C 15,0 C 94 % 15 lf 1007,8 hPa 0,0 l/m 0 min 2 min 0 W/m 8,4 km/h (2 Bft) 95,74 %
12.07.2017 05:00 16,6 C 15,6 C 15,0 C 94 % 15 lf 1007,8 hPa 0,0 l/m 0 min 2 min 0 W/m 10,5 km/h (2 Bft) 95,65 %
12.07.2017 05:02 16,6 C 15,6 C 15,0 C 94 % 15 lf 1007,7 hPa 0,0 l/m 0 min 0 min 0 W/m 8,4 km/h (2 Bft) 95,74 %
12.07.2017 05:04 16,6 C 15,6 C 15,0 C 94 % 15 lf 1007,7 hPa 0,0 l/m 0 min 0 min 0 W/m 6,3 km/h (2 Bft) 95,74 %
12.07.2017 05:06 16,6 C 15,6 C 15,0 C 94 % 15 lf 1007,7 hPa 0,0 l/m 0 min 2 min 0 W/m 6,3 km/h (2 Bft) 95,74 %
12.07.2017 05:08 16,6 C 15,6 C 15,0 C 94 % 15 lf 1007,7 hPa 0,0 l/m 0 min 2 min 0 W/m 6,3 km/h (2 Bft) 93,62 %
12.07.2017 05:10 16,6 C 15,6 C 15,0 C 95 % 15 lf 1007,7 hPa 0,0 l/m 0 min 2 min 0 W/m 6,3 km/h (2 Bft) 95,74 %
12.07.2017 05:12 16,6 C 15,6 C 15,0 C 95 % 15 lf 1007,7 hPa 0,0 l/m 0 min 2 min 0 W/m 2,1 km/h (1 Bft) 93,48 %
12.07.2017 05:14 16,6 C 15,6 C 15,0 C 95 % 15 lf 1007,6 hPa 0,0 l/m 0 min 2 min 0 W/m 6,3 km/h (2 Bft) 95,74 %
12.07.2017 05:16 16,6 C 15,6 C 15,0 C 95 % 15 lf 1007,6 hPa 0,0 l/m 0 min 2 min 0 W/m 8,4 km/h (2 Bft) 95,74 %
12.07.2017 05:18 16,6 C 15,6 C 15,0 C 95 % 15 lf 1007,7 hPa 0,2 l/m 0 min 2 min 0 W/m 8,4 km/h (2 Bft) 93,62 %
12.07.2017 05:20 16,6 C 15,6 C 15,0 C 95 % 15 lf 1007,7 hPa 0,2 l/m 0 min 2 min 0 W/m 12,6 km/h (3 Bft) 91,49 %
12.07.2017 05:22 16,6 C 15,6 C 15,0 C 95 % 15 lf 1007,7 hPa 0,0 l/m 0 min 2 min 0 W/m 8,4 km/h (2 Bft) 95,74 %
12.07.2017 05:24 16,6 C 15,6 C 15,0 C 95 % 15 lf 1007,7 hPa 0,2 l/m 0 min 2 min 0 W/m 12,6 km/h (3 Bft) 95,65 %
12.07.2017 05:26 16,6 C 15,6 C 15,0 C 95 % 15 lf 1007,6 hPa 0,2 l/m 0 min 2 min 0 W/m 6,3 km/h (2 Bft) 97,87 %
12.07.2017 05:28 16,6 C 15,6 C 15,0 C 95 % 15 lf 1007,6 hPa 0,0 l/m 0 min 2 min 0 W/m 10,5 km/h (2 Bft) 97,87 %
12.07.2017 05:30 16,5 C 15,6 C 15,0 C 95 % 15 lf 1007,6 hPa 0,2 l/m 0 min 2 min 0 W/m 10,5 km/h (2 Bft) 100,00 %
12.07.2017 05:32 16,5 C 15,6 C 15,0 C 95 % 15 lf 1007,5 hPa 0,2 l/m 0 min 2 min 0 W/m 12,6 km/h (3 Bft) 95,74 %
12.07.2017 05:34 16,5 C 15,6 C 14,4 C 95 % 15 lf 1007,5 hPa 0,0 l/m 0 min 2 min 0 W/m 10,5 km/h (2 Bft) 97,87 %
12.07.2017 05:36 16,4 C 15,0 C 14,4 C 95 % 15 lf 1007,5 hPa 0,2 l/m 0 min 2 min 0 W/m 10,5 km/h (2 Bft) 95,65 %
12.07.2017 05:38 16,4 C 15,6 C 14,4 C 95 % 15 lf 1007,5 hPa 0,2 l/m 0 min 2 min 0 W/m 8,4 km/h (2 Bft) 97,87 %
12.07.2017 05:40 16,4 C 15,6 C 14,4 C 95 % 15 lf 1007,4 hPa 0,2 l/m 0 min 2 min 0 W/m 8,4 km/h (2 Bft) 93,62 %
12.07.2017 05:42 16,4 C 15,6 C 14,4 C 95 % 15 lf 1007,3 hPa 0,2 l/m 0 min 2 min 0 W/m 8,4 km/h (2 Bft) 97,87 %
12.07.2017 05:44 16,4 C 15,6 C 15,0 C 95 % 15 lf 1007,4 hPa 0,0 l/m 0 min 2 min 0 W/m 6,3 km/h (2 Bft) 97,87 %
12.07.2017 05:46 16,4 C 15,6 C 15,0 C 95 % 15 lf 1007,3 hPa 0,0 l/m 0 min 2 min 0 W/m 4,2 km/h (1 Bft) 95,65 %
12.07.2017 05:48 16,3 C 15,6 C 14,4 C 95 % 15 lf 1007,4 hPa 0,0 l/m 0 min 2 min 0 W/m 4,2 km/h (1 Bft) 97,87 %
12.07.2017 05:50 16,3 C 15,6 C 15,0 C 95 % 15 lf 1007,2 hPa 0,2 l/m 0 min 2 min 0 W/m 0,0 km/h (0 Bft) 95,74 %
12.07.2017 05:52 16,3 C 15,6 C 14,4 C 95 % 15 lf 1007,2 hPa 0,0 l/m 0 min 2 min 0 W/m 6,3 km/h (2 Bft) 95,74 %
12.07.2017 05:54 16,3 C 15,6 C 14,4 C 95 % 15 lf 1007,2 hPa 0,0 l/m 0 min 2 min 0 W/m 4,2 km/h (1 Bft) 95,74 %
12.07.2017 05:56 16,3 C 15,6 C 15,0 C 95 % 15 lf 1007,2 hPa 0,0 l/m 0 min 2 min 0 W/m 4,2 km/h (1 Bft) 97,87 %
12.07.2017 05:58 16,3 C 15,6 C 15,0 C 95 % 15 lf 1007,2 hPa 0,2 l/m 0 min 2 min 2 W/m 4,2 km/h (1 Bft) 100,00 %
12.07.2017 06:00 16,3 C 15,6 C 15,0 C 95 % 15 lf 1007,2 hPa 0,0 l/m 0 min 2 min 5 W/m 8,4 km/h (2 Bft) 97,87 %
12.07.2017 06:02 16,3 C 15,6 C 15,0 C 95 % 15 lf 1007,2 hPa 0,0 l/m 0 min 2 min 5 W/m 6,3 km/h (2 Bft) 100,00 %
12.07.2017 06:04 16,3 C 15,6 C 15,0 C 95 % 15 lf 1007,2 hPa 0,0 l/m 0 min 2 min 3 W/m 8,4 km/h (2 Bft) 100,00 %
12.07.2017 06:06 16,3 C 15,6 C 15,0 C 95 % 15 lf 1007,2 hPa 0,2 l/m 0 min 2 min 1 W/m 6,3 km/h (2 Bft) 100,00 %
12.07.2017 06:10 16,3 C 15,6 C 15,0 C 95 % 15 lf 1007,1 hPa 0,0 l/m 0 min 4 min 5 W/m 6,3 km/h (2 Bft) 96,77 %
12.07.2017 06:12 16,3 C 15,6 C 15,0 C 95 % 15 lf 1007,1 hPa 0,0 l/m 0 min 2 min 5 W/m 6,3 km/h (2 Bft) 95,74 %
12.07.2017 06:14 16,3 C 15,6 C 15,0 C 95 % 15 lf 1007,1 hPa 0,0 l/m 0 min 2 min 5 W/m 8,4 km/h (2 Bft) 97,87 %
12.07.2017 06:16 16,2 C 15,6 C 15,0 C 95 % 15 lf 1007,1 hPa 0,0 l/m 0 min 2 min 5 W/m 6,3 km/h (2 Bft) 97,87 %
12.07.2017 06:18 16,2 C 15,6 C 15,0 C 95 % 15 lf 1007,0 hPa 0,0 l/m 0 min 0 min 5 W/m 8,4 km/h (2 Bft) 95,74 %
12.07.2017 06:20 16,2 C 15,6 C 15,0 C 95 % 15 lf 1007,0 hPa 0,0 l/m 0 min 0 min 6 W/m 6,3 km/h (2 Bft) 97,87 %
12.07.2017 06:22 16,2 C 15,6 C 15,0 C 95 % 15 lf 1007,0 hPa 0,0 l/m 0 min 2 min 7 W/m 6,3 km/h (2 Bft) 93,48 %
12.07.2017 06:24 16,2 C 15,6 C 15,0 C 95 % 15 lf 1007,0 hPa 0,2 l/m 0 min 2 min 8 W/m 8,4 km/h (2 Bft) 95,74 %
12.07.2017 06:26 16,2 C 15,6 C 15,0 C 95 % 15 lf 1007,0 hPa 0,0 l/m 0 min 2 min 10 W/m 6,3 km/h (2 Bft) 93,62 %
12.07.2017 06:28 16,2 C 15,6 C 15,0 C 95 % 15 lf 1006,8 hPa 0,0 l/m 0 min 2 min 12 W/m 4,2 km/h (1 Bft) 93,62 %
12.07.2017 06:30 16,2 C 15,6 C 15,0 C 96 % 15 lf 1006,8 hPa 0,0 l/m 0 min 2 min 14 W/m 8,4 km/h (2 Bft) 95,74 %
12.07.2017 06:32 16,2 C 15,6 C 15,0 C 96 % 15 lf 1006,8 hPa 0,0 l/m 0 min 2 min 12 W/m 4,2 km/h (1 Bft) 95,65 %
12.07.2017 06:34 16,2 C 15,6 C 15,0 C 96 % 15 lf 1006,9 hPa 0,2 l/m 0 min 2 min 11 W/m 6,3 km/h (2 Bft) 95,74 %
12.07.2017 06:36 16,2 C 15,6 C 15,0 C 96 % 15 lf 1006,8 hPa 0,2 l/m 0 min 2 min 9 W/m 6,3 km/h (2 Bft) 92,86 %
12.07.2017 06:38 16,2 C 15,6 C 15,0 C 96 % 15 lf 1006,8 hPa 0,0 l/m 0 min 2 min 7 W/m 4,2 km/h (1 Bft) 89,13 %
12.07.2017 06:40 16,2 C 15,6 C 15,0 C 96 % 15 lf 1006,9 hPa 0,0 l/m 0 min 2 min 9 W/m 0,0 km/h (0 Bft) 95,74 %
12.07.2017 06:42 16,2 C 15,6 C 15,0 C 96 % 15 lf 1006,9 hPa 0,0 l/m 0 min 2 min 11 W/m 2,1 km/h (1 Bft) 91,67 %
12.07.2017 06:44 16,2 C 15,6 C 15,0 C 96 % 15 lf 1006,8 hPa 0,0 l/m 0 min 2 min 14 W/m 0,0 km/h (0 Bft) 87,23 %
12.07.2017 06:46 16,2 C 15,6 C 15,0 C 96 % 15 lf 1006,8 hPa 0,0 l/m 0 min 2 min 14 W/m 0,0 km/h (0 Bft) 95,74 %
12.07.2017 06:48 16,2 C 15,6 C 15,0 C 96 % 15 lf 1006,8 hPa 0,2 l/m 0 min 2 min 12 W/m 0,0 km/h (0 Bft) 91,30 %
12.07.2017 06:50 16,2 C 15,6 C 15,0 C 96 % 15 lf 1006,8 hPa 0,2 l/m 0 min 2 min 9 W/m 6,3 km/h (2 Bft) 93,62 %
12.07.2017 06:52 16,2 C 15,6 C 15,0 C 96 % 15 lf 1006,7 hPa 0,0 l/m 0 min 2 min 9 W/m 6,3 km/h (2 Bft) 95,74 %
12.07.2017 06:54 16,2 C 15,6 C 15,0 C 96 % 15 lf 1006,7 hPa 0,0 l/m 0 min 2 min 7 W/m 8,4 km/h (2 Bft) 93,62 %
12.07.2017 06:56 16,2 C 15,6 C 15,0 C 96 % 15 lf 1006,7 hPa 0,2 l/m 0 min 2 min 9 W/m 6,3 km/h (2 Bft) 93,62 %
12.07.2017 06:58 16,2 C 15,6 C 15,0 C 96 % 15 lf 1006,7 hPa 0,2 l/m 0 min 2 min 11 W/m 6,3 km/h (2 Bft) 91,49 %
12.07.2017 07:00 16,2 C 15,6 C 15,0 C 96 % 15 lf 1006,7 hPa 0,0 l/m 0 min 2 min 13 W/m 8,4 km/h (2 Bft) 89,13 %
12.07.2017 07:02 16,2 C 15,6 C 15,0 C 96 % 15 lf 1006,7 hPa 0,0 l/m 0 min 2 min 24 W/m 6,3 km/h (2 Bft) 95,74 %
12.07.2017 07:04 16,2 C 15,6 C 15,0 C 96 % 15 lf 1006,6 hPa 0,0 l/m 0 min 2 min 27 W/m 8,4 km/h (2 Bft) 93,62 %
12.07.2017 07:06 16,2 C 15,6 C 15,0 C 96 % 15 lf 1006,6 hPa 0,0 l/m 0 min 2 min 24 W/m 6,3 km/h (2 Bft) 93,62 %
12.07.2017 07:08 16,2 C 15,6 C 15,0 C 96 % 15 lf 1006,6 hPa 0,0 l/m 0 min 0 min 24 W/m 6,3 km/h (2 Bft) 95,74 %
12.07.2017 07:10 16,2 C 15,6 C 15,0 C 96 % 15 lf 1006,7 hPa 0,0 l/m 0 min 0 min 32 W/m 10,5 km/h (2 Bft) 95,74 %
12.07.2017 07:12 16,2 C 15,6 C 15,0 C 96 % 15 lf 1006,6 hPa 0,0 l/m 0 min 2 min 42 W/m 8,4 km/h (2 Bft) 91,30 %
12.07.2017 07:14 16,2 C 15,6 C 15,0 C 96 % 15 lf 1006,6 hPa 0,0 l/m 0 min 2 min 45 W/m 12,6 km/h (3 Bft) 100,00 %
12.07.2017 07:16 16,2 C 15,6 C 15,0 C 96 % 15 lf 1006,5 hPa 0,0 l/m 0 min 2 min 42 W/m 8,4 km/h (2 Bft) 93,62 %
12.07.2017 07:18 16,2 C 15,6 C 15,0 C 96 % 15 lf 1006,5 hPa 0,2 l/m 0 min 2 min 38 W/m 10,5 km/h (2 Bft) 93,62 %
12.07.2017 07:20 16,2 C 15,6 C 15,0 C 96 % 15 lf 1006,5 hPa 0,0 l/m 0 min 2 min 36 W/m 8,4 km/h (2 Bft) 95,74 %
12.07.2017 07:22 16,2 C 15,6 C 15,0 C 96 % 15 lf 1006,5 hPa 0,0 l/m 0 min 2 min 37 W/m 8,4 km/h (2 Bft) 100,00 %
12.07.2017 07:24 16,2 C 15,6 C 15,0 C 96 % 15 lf 1006,5 hPa 0,0 l/m 0 min 2 min 37 W/m 10,5 km/h (2 Bft) 100,00 %
12.07.2017 07:26 16,2 C 15,6 C 15,0 C 96 % 15 lf 1006,5 hPa 0,2 l/m 0 min 2 min 36 W/m 8,4 km/h (2 Bft) 100,00 %
12.07.2017 07:28 16,2 C 15,6 C 15,0 C 96 % 15 lf 1006,5 hPa 0,0 l/m 0 min 2 min 32 W/m 6,3 km/h (2 Bft) 97,87 %
12.07.2017 07:30 16,2 C 15,6 C 15,0 C 96 % 15 lf 1006,5 hPa 0,0 l/m 0 min 2 min 34 W/m 8,4 km/h (2 Bft) 100,00 %
12.07.2017 07:32 16,2 C 15,6 C 15,0 C 96 % 15 lf 1006,5 hPa 0,0 l/m 0 min 2 min 28 W/m 8,4 km/h (2 Bft) 100,00 %
12.07.2017 07:34 16,2 C 15,6 C 15,0 C 96 % 15 lf 1006,5 hPa 0,0 l/m 0 min 2 min 30 W/m 10,5 km/h (2 Bft) 100,00 %
12.07.2017 07:36 16,2 C 15,6 C 15,0 C 97 % 15 lf 1006,5 hPa 0,0 l/m 0 min 2 min 27 W/m 6,3 km/h (2 Bft) 97,83 %
12.07.2017 07:38 16,2 C 15,6 C 15,0 C 97 % 15 lf 1006,4 hPa 0,0 l/m 0 min 2 min 27 W/m 8,4 km/h (2 Bft) 100,00 %
12.07.2017 07:40 16,2 C 15,6 C 15,0 C 97 % 15 lf 1006,4 hPa 0,2 l/m 0 min 2 min 28 W/m 10,5 km/h (2 Bft) 100,00 %
12.07.2017 07:42 16,2 C 15,6 C 15,0 C 97 % 15 lf 1006,4 hPa 0,0 l/m 0 min 2 min 38 W/m 8,4 km/h (2 Bft) 100,00 %
12.07.2017 07:44 16,2 C 15,6 C 15,0 C 97 % 15 lf 1006,4 hPa 0,0 l/m 0 min 2 min 45 W/m 10,5 km/h (2 Bft) 100,00 %
12.07.2017 07:46 16,2 C 15,6 C 15,6 C 97 % 15 lf 1006,4 hPa 0,0 l/m 0 min 2 min 39 W/m 10,5 km/h (2 Bft) 100,00 %
12.07.2017 07:48 16,2 C 15,6 C 15,0 C 97 % 15 lf 1006,4 hPa 0,0 l/m 0 min 2 min 33 W/m 12,6 km/h (3 Bft) 100,00 %
12.07.2017 07:50 16,3 C 15,6 C 15,0 C 97 % 15 lf 1006,4 hPa 0,2 l/m 0 min 2 min 40 W/m 6,3 km/h (2 Bft) 100,00 %
12.07.2017 07:52 16,3 C 15,6 C 15,0 C 97 % 15 lf 1006,3 hPa 0,0 l/m 0 min 2 min 43 W/m 8,4 km/h (2 Bft) 95,74 %
12.07.2017 07:54 16,3 C 16,1 C 15,6 C 97 % 15 lf 1006,3 hPa 0,0 l/m 0 min 2 min 48 W/m 6,3 km/h (2 Bft) 100,00 %
12.07.2017 07:56 16,3 C 16,1 C 15,6 C 97 % 15 lf 1006,3 hPa 0,0 l/m 0 min 2 min 48 W/m 10,5 km/h (2 Bft) 100,00 %
12.07.2017 07:58 16,3 C 15,6 C 15,6 C 97 % 15 lf 1006,3 hPa 0,0 l/m 0 min 2 min 39 W/m 8,4 km/h (2 Bft) 100,00 %
12.07.2017 08:00 16,3 C 16,1 C 15,6 C 97 % 15 lf 1006,3 hPa 0,0 l/m 0 min 2 min 33 W/m 10,5 km/h (2 Bft) 100,00 %
12.07.2017 08:02 16,3 C 15,6 C 15,0 C 97 % 15 lf 1006,4 hPa 0,0 l/m 0 min 2 min 42 W/m 12,6 km/h (3 Bft) 100,00 %
12.07.2017 08:04 16,3 C 15,6 C 15,0 C 97 % 15 lf 1006,2 hPa 0,2 l/m 0 min 2 min 49 W/m 8,4 km/h (2 Bft) 100,00 %
12.07.2017 08:06 16,3 C 15,6 C 15,0 C 97 % 15 lf 1006,2 hPa 0,0 l/m 0 min 2 min 51 W/m 10,5 km/h (2 Bft) 100,00 %
12.07.2017 08:08 16,3 C 15,6 C 15,0 C 97 % 15 lf 1006,2 hPa 0,2 l/m 0 min 2 min 50 W/m 8,4 km/h (2 Bft) 100,00 %
12.07.2017 08:10 16,3 C 15,6 C 15,0 C 97 % 15 lf 1006,2 hPa 0,0 l/m 0 min 2 min 35 W/m 8,4 km/h (2 Bft) 97,83 %
12.07.2017 08:12 16,3 C 15,6 C 15,0 C 97 % 15 lf 1006,2 hPa 0,0 l/m 0 min 2 min 32 W/m 14,6 km/h (3 Bft) 100,00 %
12.07.2017 08:14 16,3 C 15,6 C 15,0 C 97 % 15 lf 1006,2 hPa 0,0 l/m 0 min 2 min 37 W/m 8,4 km/h (2 Bft) 100,00 %
12.07.2017 08:16 16,3 C 15,6 C 15,0 C 97 % 15 lf 1006,2 hPa 0,0 l/m 0 min 2 min 38 W/m 16,7 km/h (3 Bft) 100,00 %
12.07.2017 08:18 16,3 C 15,6 C 15,0 C 97 % 15 lf 1006,2 hPa 0,0 l/m 0 min 2 min 40 W/m 12,6 km/h (3 Bft) 100,00 %
12.07.2017 08:20 16,3 C 15,6 C 15,0 C 97 % 15 lf 1006,2 hPa 0,2 l/m 0 min 2 min 49 W/m 16,7 km/h (3 Bft) 100,00 %
12.07.2017 08:22 16,3 C 15,6 C 15,0 C 97 % 15 lf 1006,2 hPa 0,0 l/m 0 min 2 min 59 W/m 12,6 km/h (3 Bft) 100,00 %
12.07.2017 08:24 16,3 C 16,1 C 15,6 C 97 % 15 lf 1006,2 hPa 0,0 l/m 0 min 2 min 55 W/m 14,6 km/h (3 Bft) 100,00 %
12.07.2017 08:26 16,3 C 15,6 C 15,0 C 97 % 15 lf 1006,2 hPa 0,2 l/m 0 min 2 min 47 W/m 12,6 km/h (3 Bft) 100,00 %
12.07.2017 08:28 16,3 C 15,6 C 15,0 C 97 % 15 lf 1006,1 hPa 0,0 l/m 0 min 2 min 46 W/m 12,6 km/h (3 Bft) 97,87 %
12.07.2017 08:30 16,3 C 15,6 C 15,0 C 97 % 15 lf 1006,0 hPa 0,0 l/m 0 min 2 min 45 W/m 18,8 km/h (3 Bft) 100,00 %
12.07.2017 08:32 16,3 C 15,6 C 15,0 C 97 % 15 lf 1006,0 hPa 0,2 l/m 0 min 2 min 50 W/m 14,6 km/h (3 Bft) 100,00 %
12.07.2017 08:34 16,3 C 15,6 C 15,0 C 97 % 15 lf 1005,9 hPa 0,2 l/m 0 min 2 min 68 W/m 18,8 km/h (3 Bft) 95,74 %
12.07.2017 08:36 16,3 C 15,6 C 15,0 C 97 % 15 lf 1005,9 hPa 0,2 l/m 0 min 2 min 59 W/m 10,5 km/h (2 Bft) 95,65 %
12.07.2017 08:38 16,3 C 15,6 C 15,0 C 97 % 15 lf 1006,0 hPa 0,0 l/m 0 min 2 min 38 W/m 12,6 km/h (3 Bft) 95,74 %
12.07.2017 08:40 16,3 C 15,6 C 15,0 C 97 % 15 lf 1005,9 hPa 0,0 l/m 0 min 2 min 31 W/m 14,6 km/h (3 Bft) 97,87 %
12.07.2017 08:42 16,3 C 15,6 C 15,0 C 97 % 15 lf 1006,0 hPa 0,0 l/m 0 min 2 min 32 W/m 12,6 km/h (3 Bft) 97,87 %
12.07.2017 08:44 16,3 C 15,6 C 15,0 C 97 % 15 lf 1005,8 hPa 0,0 l/m 0 min 2 min 37 W/m 20,9 km/h (4 Bft) 95,74 %
12.07.2017 08:46 16,3 C 15,6 C 15,0 C 97 % 15 lf 1005,8 hPa 0,0 l/m 0 min 2 min 47 W/m 18,8 km/h (3 Bft) 95,83 %
12.07.2017 08:48 16,3 C 16,1 C 15,0 C 97 % 15 lf 1005,8 hPa 0,2 l/m 0 min 2 min 51 W/m 8,4 km/h (2 Bft) 91,49 %
12.07.2017 08:50 16,3 C 16,1 C 15,6 C 97 % 15 lf 1005,8 hPa 0,0 l/m 0 min 2 min 53 W/m 12,6 km/h (3 Bft) 91,49 %
12.07.2017 08:52 16,3 C 16,1 C 15,6 C 97 % 15 lf 1005,8 hPa 0,0 l/m 0 min 2 min 51 W/m 10,5 km/h (2 Bft) 97,87 %
12.07.2017 08:54 16,3 C 16,1 C 15,6 C 97 % 15 lf 1005,7 hPa 0,0 l/m 0 min 2 min 47 W/m 10,5 km/h (2 Bft) 95,65 %
12.07.2017 08:56 16,3 C 15,6 C 15,0 C 97 % 15 lf 1005,8 hPa 0,2 l/m 0 min 2 min 46 W/m 18,8 km/h (3 Bft) 95,74 %
12.07.2017 08:58 16,3 C 15,6 C 15,0 C 97 % 15 lf 1005,8 hPa 0,0 l/m 0 min 2 min 48 W/m 18,8 km/h (3 Bft) 95,74 %
12.07.2017 09:00 16,3 C 15,6 C 15,0 C 97 % 15 lf 1005,7 hPa 0,2 l/m 0 min 2 min 49 W/m 12,6 km/h (3 Bft) 91,49 %
12.07.2017 09:02 16,3 C 15,6 C 15,0 C 97 % 15 lf 1005,7 hPa 0,0 l/m 0 min 2 min 47 W/m 14,6 km/h (3 Bft) 93,62 %
12.07.2017 09:04 16,3 C 15,6 C 15,0 C 97 % 15 lf 1005,7 hPa 0,0 l/m 0 min 2 min 45 W/m 12,6 km/h (3 Bft) 93,62 %
12.07.2017 09:06 16,3 C 15,6 C 15,0 C 97 % 15 lf 1005,7 hPa 0,2 l/m 0 min 2 min 46 W/m 18,8 km/h (3 Bft) 91,30 %
12.07.2017 09:08 16,2 C 15,6 C 15,0 C 97 % 15 lf 1005,8 hPa 0,2 l/m 0 min 2 min 49 W/m 12,6 km/h (3 Bft) 91,49 %
12.07.2017 09:10 16,2 C 15,6 C 15,0 C 97 % 15 lf 1005,7 hPa 0,0 l/m 0 min 2 min 48 W/m 16,7 km/h (3 Bft) 93,62 %
12.07.2017 09:12 16,2 C 15,6 C 15,0 C 97 % 15 lf 1005,6 hPa 0,2 l/m 0 min 2 min 44 W/m 16,7 km/h (3 Bft) 93,62 %
12.07.2017 09:14 16,2 C 15,6 C 15,0 C 97 % 15 lf 1005,7 hPa 0,2 l/m 0 min 2 min 37 W/m 14,6 km/h (3 Bft) 91,49 %
12.07.2017 09:16 16,2 C 15,6 C 15,0 C 97 % 15 lf 1005,6 hPa 0,0 l/m 0 min 2 min 31 W/m 14,6 km/h (3 Bft) 91,49 %
12.07.2017 09:18 16,2 C 15,6 C 15,0 C 97 % 15 lf 1005,7 hPa 0,2 l/m 0 min 2 min 41 W/m 16,7 km/h (3 Bft) 93,48 %
12.07.2017 09:20 16,2 C 15,6 C 15,0 C 97 % 15 lf 1005,6 hPa 0,4 l/m 0 min 2 min 49 W/m 14,6 km/h (3 Bft) 89,36 %
12.07.2017 09:22 16,2 C 15,6 C 15,0 C 97 % 15 lf 1005,6 hPa 0,4 l/m 0 min 2 min 57 W/m 23,0 km/h (4 Bft) 93,62 %
12.07.2017 09:24 16,2 C 15,6 C 15,0 C 97 % 15 lf 1005,6 hPa 0,2 l/m 0 min 2 min 51 W/m 18,8 km/h (3 Bft) 91,49 %
12.07.2017 09:26 16,2 C 15,6 C 15,0 C 97 % 15 lf 1005,5 hPa 0,0 l/m 0 min 2 min 49 W/m 18,8 km/h (3 Bft) 91,49 %
12.07.2017 09:28 16,2 C 15,6 C 15,0 C 97 % 15 lf 1005,6 hPa 0,0 l/m 0 min 2 min 53 W/m 14,6 km/h (3 Bft) 93,48 %
12.07.2017 09:30 16,2 C 15,6 C 15,0 C 97 % 15 lf 1005,6 hPa 0,2 l/m 0 min 2 min 74 W/m 14,6 km/h (3 Bft) 93,62 %
12.07.2017 09:32 16,2 C 15,6 C 15,0 C 97 % 15 lf 1005,5 hPa 0,0 l/m 0 min 2 min 111 W/m 16,7 km/h (3 Bft) 91,49 %
12.07.2017 09:34 16,2 C 16,1 C 15,6 C 97 % 15 lf 1005,5 hPa 0,2 l/m 0 min 2 min 134 W/m 16,7 km/h (3 Bft) 93,62 %
12.07.2017 09:36 16,2 C 16,1 C 15,6 C 97 % 15 lf 1005,5 hPa 0,0 l/m 0 min 2 min 107 W/m 12,6 km/h (3 Bft) 93,62 %
12.07.2017 09:38 16,2 C 15,6 C 15,6 C 97 % 15 lf 1005,6 hPa 0,0 l/m 0 min 2 min 74 W/m 14,6 km/h (3 Bft) 93,62 %
12.07.2017 09:40 16,2 C 16,1 C 15,6 C 97 % 15 lf 1005,5 hPa 0,0 l/m 0 min 2 min 56 W/m 8,4 km/h (2 Bft) 95,65 %
12.07.2017 09:42 16,2 C 16,1 C 15,6 C 98 % 15 lf 1005,5 hPa 0,2 l/m 0 min 2 min 44 W/m 8,4 km/h (2 Bft) 93,62 %
12.07.2017 09:44 16,2 C 16,1 C 15,6 C 98 % 15 lf 1005,5 hPa 0,0 l/m 0 min 2 min 40 W/m 16,7 km/h (3 Bft) 95,74 %
12.07.2017 09:46 16,3 C 15,6 C 15,0 C 98 % 15 lf 1005,4 hPa 0,2 l/m 0 min 2 min 39 W/m 31,4 km/h (5 Bft) 97,87 %
12.07.2017 09:48 16,2 C 15,6 C 15,0 C 98 % 15 lf 1005,5 hPa 0,2 l/m 0 min 2 min 29 W/m 27,2 km/h (4 Bft) 93,62 %
12.07.2017 09:50 16,2 C 15,6 C 15,0 C 98 % 15 lf 1005,5 hPa 0,2 l/m 0 min 2 min 25 W/m 20,9 km/h (4 Bft) 97,87 %
12.07.2017 09:52 16,2 C 15,6 C 15,0 C 98 % 15 lf 1005,4 hPa 0,2 l/m 0 min 2 min 28 W/m 18,8 km/h (3 Bft) 91,30 %
12.07.2017 09:54 16,2 C 15,6 C 15,0 C 98 % 15 lf 1005,2 hPa 0,2 l/m 0 min 2 min 33 W/m 16,7 km/h (3 Bft) 97,87 %
12.07.2017 09:56 16,2 C 15,6 C 15,0 C 98 % 15 lf 1005,4 hPa 0,2 l/m 0 min 2 min 37 W/m 16,7 km/h (3 Bft) 91,49 %
12.07.2017 09:58 16,2 C 15,6 C 15,0 C 98 % 15 lf 1005,3 hPa 0,0 l/m 0 min 2 min 42 W/m 12,6 km/h (3 Bft) 97,87 %
12.07.2017 10:00 16,2 C 15,6 C 15,0 C 98 % 15 lf 1005,2 hPa 0,2 l/m 0 min 2 min 60 W/m 18,8 km/h (3 Bft) 95,74 %
12.07.2017 10:02 16,2 C 16,1 C 15,0 C 98 % 15 lf 1005,1 hPa 0,0 l/m 0 min 2 min 72 W/m 10,5 km/h (2 Bft) 93,62 %
12.07.2017 10:04 16,2 C 16,1 C 15,0 C 98 % 15 lf 1005,2 hPa 0,2 l/m 0 min 2 min 66 W/m 18,8 km/h (3 Bft) 97,83 %
12.07.2017 10:06 16,2 C 15,6 C 15,0 C 98 % 15 lf 1005,1 hPa 0,0 l/m 0 min 2 min 59 W/m 16,7 km/h (3 Bft) 95,74 %
12.07.2017 10:08 16,2 C 16,1 C 15,0 C 98 % 15 lf 1005,0 hPa 0,0 l/m 0 min 2 min 62 W/m 14,6 km/h (3 Bft) 97,87 %
12.07.2017 10:10 16,3 C 15,6 C 15,6 C 98 % 15 lf 1005,1 hPa 0,0 l/m 0 min 2 min 60 W/m 16,7 km/h (3 Bft) 97,87 %
12.07.2017 10:12 16,2 C 15,6 C 15,0 C 98 % 15 lf 1005,1 hPa 0,0 l/m 0 min 2 min 58 W/m 20,9 km/h (4 Bft) 97,87 %
12.07.2017 10:14 16,2 C 16,1 C 15,6 C 98 % 15 lf 1005,2 hPa 0,0 l/m 0 min 2 min 58 W/m 20,9 km/h (4 Bft) 100,00 %
12.07.2017 10:16 16,3 C 16,1 C 15,0 C 98 % 15 lf 1005,1 hPa 0,0 l/m 0 min 2 min 60 W/m 20,9 km/h (4 Bft) 97,83 %
12.07.2017 10:18 16,3 C 16,1 C 15,6 C 98 % 15 lf 1005,1 hPa 0,2 l/m 0 min 2 min 83 W/m 12,6 km/h (3 Bft) 97,87 %
12.07.2017 10:20 16,3 C 16,1 C 15,6 C 98 % 15 lf 1005,1 hPa 0,0 l/m 0 min 2 min 79 W/m 20,9 km/h (4 Bft) 100,00 %
12.07.2017 10:22 16,3 C 16,1 C 15,6 C 98 % 15 lf 1005,1 hPa 0,0 l/m 0 min 2 min 67 W/m 12,6 km/h (3 Bft) 97,87 %
12.07.2017 10:24 16,3 C 16,1 C 15,6 C 98 % 15 lf 1005,1 hPa 0,0 l/m 0 min 2 min 70 W/m 20,9 km/h (4 Bft) 100,00 %
12.07.2017 10:26 16,3 C 16,1 C 15,6 C 98 % 15 lf 1005,1 hPa 0,2 l/m 0 min 2 min 82 W/m 20,9 km/h (4 Bft) 100,00 %
12.07.2017 10:28 16,3 C 16,1 C 15,6 C 98 % 15 lf 1005,1 hPa 0,2 l/m 0 min 2 min 86 W/m 23,0 km/h (4 Bft) 100,00 %
12.07.2017 10:30 16,3 C 16,1 C 15,6 C 98 % 15 lf 1005,0 hPa 0,2 l/m 0 min 2 min 88 W/m 23,0 km/h (4 Bft) 95,74 %
12.07.2017 10:32 16,3 C 16,1 C 15,6 C 98 % 15 lf 1005,0 hPa 0,2 l/m 0 min 2 min 81 W/m 18,8 km/h (3 Bft) 95,74 %
12.07.2017 10:34 16,3 C 16,1 C 15,6 C 98 % 15 lf 1005,0 hPa 0,0 l/m 0 min 2 min 73 W/m 12,6 km/h (3 Bft) 100,00 %
12.07.2017 10:36 16,3 C 16,1 C 15,6 C 98 % 15 lf 1004,9 hPa 0,0 l/m 0 min 2 min 72 W/m 14,6 km/h (3 Bft) 97,87 %
12.07.2017 10:38 16,3 C 16,1 C 15,6 C 98 % 15 lf 1005,0 hPa 0,2 l/m 0 min 2 min 65 W/m 14,6 km/h (3 Bft) 97,87 %
12.07.2017 10:40 16,3 C 15,6 C 15,0 C 98 % 15 lf 1005,0 hPa 0,2 l/m 0 min 2 min 60 W/m 25,1 km/h (4 Bft) 97,83 %
12.07.2017 10:42 16,3 C 16,1 C 15,0 C 98 % 15 lf 1005,0 hPa 0,2 l/m 0 min 2 min 57 W/m 14,6 km/h (3 Bft) 97,87 %
12.07.2017 10:44 16,3 C 16,1 C 15,0 C 98 % 15 lf 1005,0 hPa 0,2 l/m 0 min 2 min 48 W/m 14,6 km/h (3 Bft) 97,87 %
12.07.2017 10:46 16,3 C 16,1 C 15,0 C 98 % 15 lf 1005,1 hPa 0,0 l/m 0 min 2 min 44 W/m 23,0 km/h (4 Bft) 97,87 %
12.07.2017 10:48 16,3 C 16,1 C 15,0 C 98 % 15 lf 1005,0 hPa 0,0 l/m 0 min 2 min 45 W/m 16,7 km/h (3 Bft) 97,87 %
12.07.2017 10:50 16,3 C 15,6 C 15,0 C 98 % 15 lf 1005,0 hPa 0,0 l/m 0 min 2 min 55 W/m 16,7 km/h (3 Bft) 97,83 %
12.07.2017 10:52 16,3 C 16,1 C 15,0 C 98 % 15 lf 1005,1 hPa 0,0 l/m 0 min 2 min 55 W/m 25,1 km/h (4 Bft) 97,87 %
12.07.2017 10:54 16,3 C 16,1 C 15,6 C 98 % 15 lf 1005,1 hPa 0,0 l/m 0 min 0 min 66 W/m 20,9 km/h (4 Bft) 97,87 %
12.07.2017 10:56 16,3 C 16,1 C 15,6 C 98 % 15 lf 1005,1 hPa 0,0 l/m 0 min 0 min 94 W/m 23,0 km/h (4 Bft) 95,74 %
12.07.2017 10:58 16,3 C 16,1 C 15,6 C 98 % 15 lf 1005,0 hPa 0,0 l/m 0 min 0 min 121 W/m 25,1 km/h (4 Bft) 97,87 %
12.07.2017 11:00 16,3 C 16,7 C 15,6 C 98 % 15 lf 1005,1 hPa 0,0 l/m 0 min 0 min 132 W/m 10,5 km/h (2 Bft) 95,74 %
12.07.2017 11:02 16,4 C 16,1 C 16,1 C 98 % 15 lf 1005,1 hPa 0,0 l/m 0 min 2 min 138 W/m 27,2 km/h (4 Bft) 97,83 %
12.07.2017 11:04 16,4 C 16,1 C 16,1 C 98 % 15 lf 1005,1 hPa 0,0 l/m 0 min 2 min 121 W/m 18,8 km/h (3 Bft) 97,87 %
12.07.2017 11:06 16,4 C 16,7 C 16,1 C 98 % 15 lf 1005,1 hPa 0,0 l/m 0 min 2 min 107 W/m 14,6 km/h (3 Bft) 95,74 %
12.07.2017 11:08 16,4 C 16,1 C 16,1 C 98 % 15 lf 1005,1 hPa 0,0 l/m 0 min 2 min 103 W/m 14,6 km/h (3 Bft) 97,87 %
12.07.2017 11:10 16,5 C 16,1 C 15,6 C 98 % 15 lf 1005,1 hPa 0,0 l/m 0 min 2 min 91 W/m 23,0 km/h (4 Bft) 95,74 %
12.07.2017 11:12 16,5 C 16,1 C 15,6 C 98 % 15 lf 1005,1 hPa 0,0 l/m 0 min 2 min 87 W/m 18,8 km/h (3 Bft) 97,87 %
12.07.2017 11:14 16,5 C 16,1 C 15,6 C 98 % 15 lf 1005,0 hPa 0,0 l/m 0 min 2 min 103 W/m 18,8 km/h (3 Bft) 97,83 %
12.07.2017 11:16 16,5 C 16,1 C 16,1 C 98 % 15 lf 1005,0 hPa 0,0 l/m 0 min 2 min 112 W/m 10,5 km/h (2 Bft) 97,87 %
12.07.2017 11:18 16,5 C 16,1 C 16,1 C 98 % 15 lf 1005,0 hPa 0,0 l/m 0 min 2 min 129 W/m 23,0 km/h (4 Bft) 100,00 %
12.07.2017 11:20 16,6 C 16,7 C 16,7 C 98 % 15 lf 1005,0 hPa 0,0 l/m 0 min 0 min 205 W/m 10,5 km/h (2 Bft) 100,00 %
12.07.2017 11:22 16,6 C 16,7 C 16,7 C 98 % 15 lf 1005,0 hPa 0,2 l/m 0 min 0 min 204 W/m 16,7 km/h (3 Bft) 97,87 %
12.07.2017 11:24 16,7 C 16,7 C 16,1 C 98 % 15 lf 1005,0 hPa 0,0 l/m 0 min 0 min 176 W/m 20,9 km/h (4 Bft) 100,00 %
12.07.2017 11:26 16,7 C 16,7 C 16,7 C 98 % 15 lf 1004,9 hPa 0,0 l/m 0 min 0 min 194 W/m 12,6 km/h (3 Bft) 100,00 %
12.07.2017 11:28 16,7 C 16,7 C 16,1 C 98 % 15 lf 1005,0 hPa 0,0 l/m 0 min 0 min 153 W/m 18,8 km/h (3 Bft) 100,00 %
12.07.2017 11:30 16,8 C 16,7 C 16,1 C 98 % 15 lf 1004,9 hPa 0,0 l/m 0 min 0 min 134 W/m 14,6 km/h (3 Bft) 100,00 %
12.07.2017 11:32 16,8 C 16,7 C 16,1 C 98 % 15 lf 1004,9 hPa 0,0 l/m 0 min 0 min 127 W/m 23,0 km/h (4 Bft) 95,74 %
12.07.2017 11:34 16,8 C 16,7 C 16,1 C 98 % 15 lf 1004,9 hPa 0,0 l/m 0 min 0 min 101 W/m 18,8 km/h (3 Bft) 97,87 %
12.07.2017 11:36 16,8 C 16,7 C 16,1 C 98 % 15 lf 1004,9 hPa 0,0 l/m 0 min 0 min 107 W/m 23,0 km/h (4 Bft) 100,00 %
12.07.2017 11:38 16,8 C 16,7 C 16,1 C 98 % 15 lf 1004,9 hPa 0,0 l/m 0 min 2 min 127 W/m 20,9 km/h (4 Bft) 100,00 %
12.07.2017 11:40 16,8 C 16,7 C 16,1 C 98 % 15 lf 1004,8 hPa 0,0 l/m 0 min 2 min 129 W/m 20,9 km/h (4 Bft) 100,00 %
12.07.2017 11:42 16,8 C 16,7 C 16,1 C 98 % 15 lf 1004,9 hPa 0,0 l/m 0 min 2 min 140 W/m 14,6 km/h (3 Bft) 97,87 %
12.07.2017 11:44 16,8 C 16,7 C 16,1 C 98 % 15 lf 1004,8 hPa 0,0 l/m 0 min 0 min 126 W/m 16,7 km/h (3 Bft) 97,87 %
12.07.2017 11:46 16,8 C 16,7 C 16,1 C 98 % 15 lf 1004,8 hPa 0,0 l/m 0 min 0 min 108 W/m 14,6 km/h (3 Bft) 97,87 %
12.07.2017 11:48 16,8 C 16,7 C 16,1 C 98 % 15 lf 1004,9 hPa 0,0 l/m 0 min 2 min 105 W/m 20,9 km/h (4 Bft) 97,83 %
12.07.2017 11:50 16,8 C 16,7 C 16,1 C 98 % 15 lf 1004,8 hPa 0,0 l/m 0 min 2 min 118 W/m 23,0 km/h (4 Bft) 93,62 %
12.07.2017 11:52 16,8 C 16,7 C 16,1 C 98 % 15 lf 1004,8 hPa 0,0 l/m 0 min 2 min 126 W/m 23,0 km/h (4 Bft) 95,74 %
12.07.2017 11:54 16,9 C 16,7 C 16,1 C 98 % 15 lf 1004,8 hPa 0,0 l/m 0 min 2 min 139 W/m 16,7 km/h (3 Bft) 95,74 %
12.07.2017 11:56 16,9 C 16,7 C 16,7 C 98 % 15 lf 1004,8 hPa 0,0 l/m 0 min 2 min 145 W/m 12,6 km/h (3 Bft) 95,74 %
12.07.2017 11:58 16,9 C 16,7 C 16,1 C 98 % 15 lf 1004,8 hPa 0,0 l/m 0 min 2 min 154 W/m 16,7 km/h (3 Bft) 97,87 %
12.07.2017 12:00 16,9 C 16,7 C 16,1 C 98 % 15 lf 1004,8 hPa 0,2 l/m 0 min 2 min 176 W/m 18,8 km/h (3 Bft) 95,65 %
12.07.2017 12:02 16,9 C 16,7 C 16,7 C 98 % 15 lf 1004,7 hPa 0,0 l/m 0 min 2 min 183 W/m 12,6 km/h (3 Bft) 95,74 %
12.07.2017 12:04 16,9 C 16,7 C 16,7 C 98 % 15 lf 1004,7 hPa 0,0 l/m 0 min 2 min 190 W/m 20,9 km/h (4 Bft) 97,87 %
12.07.2017 12:06 17,0 C 16,7 C 16,7 C 98 % 15 lf 1004,7 hPa 0,0 l/m 0 min 2 min 163 W/m 16,7 km/h (3 Bft) 95,74 %
12.07.2017 12:08 17,0 C 16,7 C 16,7 C 98 % 15 lf 1004,7 hPa 0,0 l/m 0 min 2 min 137 W/m 16,7 km/h (3 Bft) 97,87 %
12.07.2017 12:12 17,0 C 16,7 C 16,1 C 98 % 15 lf 1004,7 hPa 0,0 l/m 0 min 4 min 120 W/m 25,1 km/h (4 Bft) 93,20 %
12.07.2017 12:14 17,0 C 16,7 C 16,1 C 98 % 15 lf 1004,7 hPa 0,2 l/m 0 min 2 min 114 W/m 20,9 km/h (4 Bft) 95,74 %
12.07.2017 12:16 17,0 C 16,7 C 16,1 C 98 % 15 lf 1004,7 hPa 0,0 l/m 0 min 2 min 109 W/m 16,7 km/h (3 Bft) 95,65 %
12.07.2017 12:18 17,0 C 16,7 C 16,1 C 98 % 15 lf 1004,7 hPa 0,0 l/m 0 min 2 min 112 W/m 14,6 km/h (3 Bft) 95,74 %
12.07.2017 12:20 17,0 C 16,7 C 16,1 C 98 % 15 lf 1004,6 hPa 0,2 l/m 0 min 2 min 118 W/m 16,7 km/h (3 Bft) 95,74 %
12.07.2017 12:22 17,0 C 16,7 C 16,7 C 98 % 15 lf 1004,6 hPa 0,0 l/m 0 min 2 min 134 W/m 14,6 km/h (3 Bft) 91,49 %
12.07.2017 12:24 17,1 C 16,7 C 16,7 C 98 % 15 lf 1004,6 hPa 0,0 l/m 0 min 2 min 158 W/m 23,0 km/h (4 Bft) 93,62 %
12.07.2017 12:26 17,1 C 16,7 C 16,7 C 98 % 15 lf 1004,6 hPa 0,0 l/m 0 min 2 min 145 W/m 18,8 km/h (3 Bft) 93,62 %
12.07.2017 12:28 17,1 C 16,7 C 16,1 C 98 % 15 lf 1004,6 hPa 0,2 l/m 0 min 2 min 154 W/m 29,3 km/h (5 Bft) 89,13 %
12.07.2017 12:30 17,1 C 16,7 C 16,1 C 98 % 15 lf 1004,5 hPa 0,0 l/m 0 min 2 min 133 W/m 29,3 km/h (5 Bft) 93,62 %
12.07.2017 12:32 17,0 C 16,7 C 16,1 C 98 % 15 lf 1004,5 hPa 0,2 l/m 0 min 2 min 128 W/m 29,3 km/h (5 Bft) 93,62 %
12.07.2017 12:34 17,0 C 16,7 C 16,1 C 98 % 15 lf 1004,5 hPa 0,2 l/m 0 min 2 min 140 W/m 18,8 km/h (3 Bft) 95,74 %
12.07.2017 12:36 17,1 C 16,7 C 16,1 C 98 % 15 lf 1004,5 hPa 0,0 l/m 0 min 2 min 127 W/m 20,9 km/h (4 Bft) 91,89 %
12.07.2017 12:38 17,1 C 16,7 C 16,1 C 98 % 15 lf 1004,4 hPa 0,0 l/m 0 min 2 min 109 W/m 27,2 km/h (4 Bft) 93,62 %
12.07.2017 12:40 17,0 C 16,7 C 16,1 C 98 % 15 lf 1004,4 hPa 0,0 l/m 0 min 2 min 80 W/m 27,2 km/h (4 Bft) 91,49 %
12.07.2017 12:42 17,0 C 16,7 C 16,1 C 98 % 15 lf 1004,5 hPa 0,0 l/m 0 min 2 min 76 W/m 23,0 km/h (4 Bft) 91,49 %
12.07.2017 12:44 17,1 C 16,7 C 16,1 C 98 % 15 lf 1004,4 hPa 0,2 l/m 0 min 2 min 76 W/m 18,8 km/h (3 Bft) 89,36 %
12.07.2017 12:46 17,0 C 16,7 C 16,1 C 98 % 15 lf 1004,3 hPa 0,0 l/m 0 min 2 min 90 W/m 23,0 km/h (4 Bft) 91,49 %
12.07.2017 12:48 17,0 C 16,7 C 16,1 C 98 % 15 lf 1004,4 hPa 0,0 l/m 0 min 2 min 94 W/m 29,3 km/h (5 Bft) 91,30 %
12.07.2017 12:50 17,0 C 16,7 C 16,1 C 98 % 15 lf 1004,4 hPa 0,0 l/m 0 min 2 min 93 W/m 29,3 km/h (5 Bft) 95,74 %
12.07.2017 12:52 17,0 C 16,7 C 16,1 C 98 % 15 lf 1004,4 hPa 0,0 l/m 0 min 2 min 89 W/m 37,7 km/h (5 Bft) 93,62 %
12.07.2017 12:54 16,9 C 16,7 C 16,1 C 98 % 15 lf 1004,4 hPa 0,0 l/m 0 min 2 min 121 W/m 33,5 km/h (5 Bft) 93,62 %
12.07.2017 12:56 17,0 C 16,7 C 16,1 C 98 % 15 lf 1004,4 hPa 0,0 l/m 0 min 2 min 131 W/m 31,4 km/h (5 Bft) 91,49 %
12.07.2017 12:58 17,0 C 16,7 C 16,1 C 98 % 15 lf 1004,4 hPa 0,0 l/m 0 min 0 min 140 W/m 33,5 km/h (5 Bft) 91,49 %
12.07.2017 13:00 17,0 C 16,7 C 16,1 C 98 % 15 lf 1004,4 hPa 0,0 l/m 0 min 2 min 129 W/m 31,4 km/h (5 Bft) 93,48 %
12.07.2017 13:02 17,0 C 16,7 C 16,1 C 98 % 15 lf 1004,3 hPa 0,0 l/m 0 min 2 min 129 W/m 43,9 km/h (6 Bft) 93,62 %
12.07.2017 13:04 17,0 C 16,7 C 16,1 C 98 % 15 lf 1004,4 hPa 0,0 l/m 0 min 2 min 138 W/m 39,7 km/h (6 Bft) 93,62 %
12.07.2017 13:06 17,1 C 16,7 C 16,1 C 98 % 15 lf 1004,4 hPa 0,0 l/m 0 min 2 min 170 W/m 37,7 km/h (5 Bft) 91,49 %
12.07.2017 13:08 17,1 C 16,7 C 16,1 C 98 % 15 lf 1004,4 hPa 0,0 l/m 0 min 2 min 168 W/m 37,7 km/h (5 Bft) 93,62 %
12.07.2017 13:10 17,1 C 16,7 C 16,1 C 98 % 15 lf 1004,4 hPa 0,0 l/m 0 min 2 min 153 W/m 35,6 km/h (5 Bft) 91,49 %
12.07.2017 13:12 17,1 C 16,7 C 16,1 C 98 % 15 lf 1004,3 hPa 0,0 l/m 0 min 2 min 173 W/m 41,8 km/h (6 Bft) 95,65 %
12.07.2017 13:14 17,2 C 17,2 C 16,7 C 98 % 15 lf 1004,4 hPa 0,2 l/m 0 min 2 min 176 W/m 41,8 km/h (6 Bft) 93,62 %
12.07.2017 13:16 17,2 C 16,7 C 16,1 C 98 % 15 lf 1004,4 hPa 0,0 l/m 0 min 2 min 154 W/m 41,8 km/h (6 Bft) 97,87 %
12.07.2017 13:18 17,2 C 16,7 C 16,1 C 98 % 15 lf 1004,4 hPa 0,2 l/m 0 min 2 min 118 W/m 41,8 km/h (6 Bft) 95,74 %
12.07.2017 13:20 17,3 C 16,7 C 16,1 C 98 % 15 lf 1004,4 hPa 0,2 l/m 0 min 2 min 102 W/m 37,7 km/h (5 Bft) 100,00 %
12.07.2017 13:22 17,3 C 16,7 C 16,1 C 98 % 15 lf 1004,4 hPa 0,2 l/m 0 min 2 min 123 W/m 39,7 km/h (6 Bft) 97,83 %
12.07.2017 13:24 17,3 C 16,7 C 16,1 C 98 % 15 lf 1004,4 hPa 0,0 l/m 0 min 2 min 122 W/m 33,5 km/h (5 Bft) 97,87 %
12.07.2017 13:26 17,3 C 16,7 C 16,1 C 98 % 15 lf 1004,6 hPa 0,2 l/m 0 min 2 min 75 W/m 50,2 km/h (7 Bft) 97,87 %
12.07.2017 13:28 17,3 C 16,7 C 16,1 C 98 % 15 lf 1005,2 hPa 0,4 l/m 0 min 2 min 31 W/m 37,7 km/h (5 Bft) 100,00 %
12.07.2017 13:30 17,2 C 16,7 C 15,6 C 98 % 15 lf 1005,3 hPa 0,8 l/m 0 min 2 min 42 W/m 35,6 km/h (5 Bft) 97,87 %
12.07.2017 13:32 17,1 C 16,1 C 15,0 C 98 % 15 lf 1005,5 hPa 0,8 l/m 0 min 2 min 52 W/m 29,3 km/h (5 Bft) 100,00 %
12.07.2017 13:34 17,0 C 15,6 C 15,0 C 98 % 15 lf 1005,6 hPa 0,6 l/m 0 min 2 min 61 W/m 25,1 km/h (4 Bft) 97,83 %
12.07.2017 13:36 16,9 C 15,6 C 15,0 C 98 % 15 lf 1005,7 hPa 0,4 l/m 0 min 2 min 73 W/m 35,6 km/h (5 Bft) 100,00 %
12.07.2017 13:38 16,8 C 15,6 C 15,0 C 98 % 15 lf 1005,8 hPa 0,4 l/m 0 min 2 min 82 W/m 27,2 km/h (4 Bft) 100,00 %
12.07.2017 13:40 16,6 C 15,6 C 15,0 C 98 % 15 lf 1005,8 hPa 0,0 l/m 0 min 2 min 91 W/m 25,1 km/h (4 Bft) 100,00 %
12.07.2017 13:42 16,6 C 15,6 C 15,0 C 97 % 15 lf 1005,9 hPa 0,2 l/m 0 min 2 min 92 W/m 18,8 km/h (3 Bft) 97,87 %
12.07.2017 13:44 16,5 C 15,6 C 15,0 C 97 % 15 lf 1005,9 hPa 0,2 l/m 0 min 2 min 83 W/m 27,2 km/h (4 Bft) 100,00 %
12.07.2017 13:46 16,5 C 15,6 C 15,0 C 97 % 15 lf 1006,0 hPa 0,2 l/m 0 min 2 min 87 W/m 25,1 km/h (4 Bft) 97,83 %
12.07.2017 13:48 16,4 C 15,6 C 15,0 C 97 % 15 lf 1006,1 hPa 0,2 l/m 0 min 2 min 61 W/m 25,1 km/h (4 Bft) 97,87 %
12.07.2017 13:50 16,4 C 15,6 C 15,0 C 97 % 15 lf 1006,1 hPa 0,2 l/m 0 min 2 min 54 W/m 18,8 km/h (3 Bft) 100,00 %
12.07.2017 13:52 16,4 C 15,6 C 15,0 C 97 % 15 lf 1006,2 hPa 0,2 l/m 0 min 2 min 52 W/m 16,7 km/h (3 Bft) 100,00 %
12.07.2017 13:54 16,3 C 15,6 C 15,0 C 97 % 15 lf 1006,3 hPa 0,0 l/m 0 min 2 min 61 W/m 16,7 km/h (3 Bft) 97,87 %
12.07.2017 13:56 16,3 C 15,6 C 15,0 C 97 % 15 lf 1006,3 hPa 0,4 l/m 0 min 2 min 69 W/m 25,1 km/h (4 Bft) 100,00 %
12.07.2017 13:58 16,3 C 15,6 C 15,0 C 97 % 15 lf 1006,4 hPa 0,0 l/m 0 min 2 min 80 W/m 16,7 km/h (3 Bft) 100,00 %
12.07.2017 14:00 16,3 C 15,6 C 15,0 C 97 % 15 lf 1006,6 hPa 0,0 l/m 0 min 2 min 77 W/m 29,3 km/h (5 Bft) 100,00 %
12.07.2017 14:02 16,2 C 15,6 C 15,0 C 97 % 15 lf 1006,6 hPa 0,2 l/m 0 min 2 min 44 W/m 16,7 km/h (3 Bft) 95,74 %
12.07.2017 14:04 16,2 C 15,6 C 15,0 C 97 % 15 lf 1006,9 hPa 0,0 l/m 0 min 2 min 41 W/m 25,1 km/h (4 Bft) 100,00 %
12.07.2017 14:06 16,2 C 15,6 C 15,0 C 97 % 15 lf 1006,8 hPa 0,2 l/m 0 min 2 min 50 W/m 27,2 km/h (4 Bft) 100,00 %
12.07.2017 14:08 16,2 C 15,6 C 15,0 C 97 % 15 lf 1007,0 hPa 0,2 l/m 0 min 2 min 66 W/m 35,6 km/h (5 Bft) 100,00 %
12.07.2017 14:10 16,2 C 15,6 C 15,0 C 97 % 15 lf 1007,1 hPa 0,0 l/m 0 min 2 min 119 W/m 25,1 km/h (4 Bft) 100,00 %
12.07.2017 14:12 16,2 C 16,1 C 15,6 C 97 % 15 lf 1007,0 hPa 0,2 l/m 0 min 2 min 267 W/m 29,3 km/h (5 Bft) 97,87 %
12.07.2017 14:14 16,1 C 16,1 C 15,6 C 97 % 15 lf 1007,0 hPa 0,0 l/m 0 min 2 min 265 W/m 37,7 km/h (5 Bft) 100,00 %
12.07.2017 14:16 16,1 C 16,1 C 15,0 C 97 % 15 lf 1006,9 hPa 0,0 l/m 0 min 2 min 242 W/m 33,5 km/h (5 Bft) 100,00 %
12.07.2017 14:18 16,1 C 16,1 C 15,0 C 97 % 15 lf 1006,9 hPa 0,0 l/m 0 min 2 min 202 W/m 23,0 km/h (4 Bft) 100,00 %
12.07.2017 14:20 16,0 C 15,6 C 15,0 C 97 % 15 lf 1006,8 hPa 0,0 l/m 0 min 2 min 171 W/m 29,3 km/h (5 Bft) 97,87 %
12.07.2017 14:22 15,9 C 15,6 C 15,0 C 97 % 15 lf 1006,6 hPa 0,0 l/m 0 min 2 min 148 W/m 31,4 km/h (5 Bft) 100,00 %
12.07.2017 14:24 15,9 C 15,6 C 15,0 C 97 % 15 lf 1006,4 hPa 0,2 l/m 0 min 2 min 142 W/m 27,2 km/h (4 Bft) 97,87 %
12.07.2017 14:26 15,9 C 15,6 C 14,4 C 97 % 15 lf 1006,9 hPa 0,0 l/m 0 min 2 min 146 W/m 27,2 km/h (4 Bft) 97,87 %
12.07.2017 14:28 15,8 C 15,6 C 15,0 C 97 % 15 lf 1007,0 hPa 0,2 l/m 0 min 2 min 167 W/m 23,0 km/h (4 Bft) 95,74 %
12.07.2017 14:30 15,8 C 15,6 C 15,0 C 97 % 15 lf 1007,1 hPa 0,0 l/m 0 min 2 min 200 W/m 18,8 km/h (3 Bft) 97,87 %
12.07.2017 14:32 15,8 C 16,1 C 15,0 C 97 % 15 lf 1007,3 hPa 0,0 l/m 0 min 2 min 225 W/m 18,8 km/h (3 Bft) 95,74 %
12.07.2017 14:34 15,8 C 16,1 C 15,0 C 97 % 15 lf 1007,5 hPa 0,0 l/m 0 min 2 min 225 W/m 25,1 km/h (4 Bft) 95,65 %
12.07.2017 14:36 15,8 C 16,1 C 15,0 C 97 % 15 lf 1007,7 hPa 0,0 l/m 0 min 2 min 230 W/m 23,0 km/h (4 Bft) 93,62 %
12.07.2017 14:38 15,9 C 16,1 C 15,6 C 98 % 15 lf 1007,8 hPa 0,0 l/m 0 min 2 min 237 W/m 23,0 km/h (4 Bft) 95,74 %
12.07.2017 14:40 15,9 C 16,1 C 15,6 C 98 % 15 lf 1007,5 hPa 0,0 l/m 0 min 2 min 248 W/m 27,2 km/h (4 Bft) 97,87 %
12.07.2017 14:42 15,9 C 15,6 C 15,0 C 98 % 15 lf 1007,5 hPa 0,0 l/m 0 min 2 min 246 W/m 31,4 km/h (5 Bft) 93,62 %
12.07.2017 14:44 15,8 C 15,6 C 15,0 C 98 % 15 lf 1007,5 hPa 0,0 l/m 0 min 2 min 239 W/m 29,3 km/h (5 Bft) 95,65 %
12.07.2017 14:46 15,8 C 16,1 C 15,6 C 97 % 15 lf 1007,7 hPa 0,0 l/m 0 min 0 min 234 W/m 29,3 km/h (5 Bft) 97,87 %
12.07.2017 14:48 15,9 C 16,1 C 15,6 C 98 % 15 lf 1007,6 hPa 0,0 l/m 0 min 2 min 242 W/m 29,3 km/h (5 Bft) 91,49 %
12.07.2017 14:50 15,9 C 16,1 C 15,6 C 98 % 15 lf 1007,5 hPa 0,0 l/m 0 min 0 min 288 W/m 29,3 km/h (5 Bft) 93,62 %
12.07.2017 14:52 15,9 C 16,1 C 16,1 C 98 % 15 lf 1007,6 hPa 0,0 l/m 0 min 0 min 293 W/m 27,2 km/h (4 Bft) 93,62 %
12.07.2017 14:54 15,9 C 16,1 C 16,1 C 98 % 15 lf 1007,7 hPa 0,0 l/m 0 min 0 min 283 W/m 25,1 km/h (4 Bft) 93,62 %
12.07.2017 14:56 15,9 C 16,1 C 16,1 C 98 % 15 lf 1007,7 hPa 0,0 l/m 0 min 2 min 305 W/m 29,3 km/h (5 Bft) 93,48 %
12.07.2017 14:58 15,9 C 16,7 C 16,7 C 98 % 15 lf 1007,6 hPa 0,0 l/m 0 min 0 min 371 W/m 20,9 km/h (4 Bft) 95,74 %
12.07.2017 15:00 15,9 C 17,2 C 17,2 C 98 % 15 lf 1007,8 hPa 0,0 l/m 0 min 0 min 384 W/m 27,2 km/h (4 Bft) 97,87 %
12.07.2017 15:02 16,1 C 17,8 C 17,8 C 98 % 15 lf 1007,7 hPa 0,0 l/m 0 min 0 min 373 W/m 29,3 km/h (5 Bft) 95,74 %
12.07.2017 15:04 16,1 C 17,2 C 17,2 C 98 % 15 lf 1007,8 hPa 0,0 l/m 0 min 0 min 298 W/m 23,0 km/h (4 Bft) 93,62 %
12.07.2017 15:06 16,2 C 17,2 C 17,2 C 98 % 15 lf 1007,8 hPa 0,0 l/m 0 min 0 min 311 W/m 27,2 km/h (4 Bft) 95,74 %
12.07.2017 15:08 16,2 C 17,2 C 17,2 C 98 % 15 lf 1007,8 hPa 0,0 l/m 0 min 0 min 250 W/m 23,0 km/h (4 Bft) 91,30 %
12.07.2017 15:10 16,2 C 17,2 C 16,7 C 98 % 15 lf 1007,9 hPa 0,0 l/m 0 min 0 min 236 W/m 29,3 km/h (5 Bft) 95,74 %
12.07.2017 15:12 16,3 C 16,7 C 16,7 C 98 % 15 lf 1007,9 hPa 0,0 l/m 0 min 0 min 201 W/m 23,0 km/h (4 Bft) 93,62 %
12.07.2017 15:14 16,3 C 17,2 C 16,7 C 98 % 15 lf 1008,0 hPa 0,0 l/m 0 min 0 min 189 W/m 12,6 km/h (3 Bft) 93,62 %
12.07.2017 15:16 16,3 C 17,2 C 16,7 C 98 % 15 lf 1008,1 hPa 0,0 l/m 0 min 0 min 185 W/m 14,6 km/h (3 Bft) 97,87 %
12.07.2017 15:18 16,3 C 17,8 C 17,2 C 98 % 15 lf 1008,2 hPa 0,0 l/m 0 min 0 min 260 W/m 20,9 km/h (4 Bft) 97,87 %
12.07.2017 15:20 16,4 C 17,8 C 17,2 C 98 % 15 lf 1008,2 hPa 0,0 l/m 0 min 0 min 281 W/m 27,2 km/h (4 Bft) 97,83 %
12.07.2017 15:22 16,4 C 17,2 C 16,7 C 98 % 15 lf 1008,7 hPa 0,0 l/m 0 min 0 min 234 W/m 16,7 km/h (3 Bft) 97,87 %
12.07.2017 15:24 16,4 C 17,2 C 16,7 C 98 % 15 lf 1008,8 hPa 0,0 l/m 0 min 0 min 113 W/m 20,9 km/h (4 Bft) 97,87 %
12.07.2017 15:26 16,5 C 16,7 C 16,7 C 98 % 15 lf 1009,0 hPa 0,0 l/m 0 min 0 min 88 W/m 20,9 km/h (4 Bft) 97,87 %
12.07.2017 15:28 16,5 C 16,7 C 16,1 C 98 % 15 lf 1009,0 hPa 0,0 l/m 0 min 0 min 110 W/m 23,0 km/h (4 Bft) 91,49 %
12.07.2017 15:30 16,5 C 16,7 C 16,1 C 98 % 15 lf 1009,2 hPa 0,0 l/m 0 min 0 min 117 W/m 25,1 km/h (4 Bft) 95,74 %
12.07.2017 15:32 16,5 C 16,7 C 16,1 C 98 % 14 lf 1009,2 hPa 0,0 l/m 0 min 0 min 115 W/m 25,1 km/h (4 Bft) 97,83 %
12.07.2017 15:34 16,4 C 16,7 C 16,1 C 98 % 12 lf 1009,3 hPa 0,0 l/m 0 min 0 min 126 W/m 27,2 km/h (4 Bft) 97,87 %
12.07.2017 15:36 16,4 C 16,7 C 16,7 C 97 % 7 lf 1009,3 hPa 0,0 l/m 0 min 0 min 217 W/m 23,0 km/h (4 Bft) 97,87 %
12.07.2017 15:38 16,5 C 17,2 C 17,2 C 97 % 3 lf 1009,4 hPa 0,0 l/m 0 min 0 min 281 W/m 25,1 km/h (4 Bft) 97,87 %
12.07.2017 15:40 16,5 C 17,2 C 17,2 C 97 % 2 lf 1009,6 hPa 0,0 l/m 0 min 0 min 254 W/m 20,9 km/h (4 Bft) 97,87 %
12.07.2017 15:42 16,5 C 17,8 C 17,2 C 97 % 1 lf 1009,7 hPa 0,0 l/m 0 min 0 min 262 W/m 23,0 km/h (4 Bft) 95,74 %
12.07.2017 15:44 16,5 C 16,7 C 16,7 C 97 % 1 lf 1009,8 hPa 0,0 l/m 0 min 0 min 145 W/m 23,0 km/h (4 Bft) 95,65 %
12.07.2017 15:46 16,5 C 16,7 C 16,1 C 97 % 0 lf 1009,9 hPa 0,0 l/m 0 min 0 min 119 W/m 23,0 km/h (4 Bft) 91,49 %
12.07.2017 15:48 16,5 C 16,7 C 16,7 C 97 % 0 lf 1010,2 hPa 0,0 l/m 0 min 0 min 145 W/m 18,8 km/h (3 Bft) 95,74 %
12.07.2017 15:50 16,6 C 17,2 C 17,2 C 97 % 0 lf 1010,1 hPa 0,0 l/m 0 min 0 min 228 W/m 16,7 km/h (3 Bft) 95,74 %
12.07.2017 15:52 16,6 C 18,3 C 18,9 C 97 % 0 lf 1010,2 hPa 0,0 l/m 0 min 0 min 316 W/m 18,8 km/h (3 Bft) 95,74 %
12.07.2017 15:54 16,7 C 19,4 C 20,0 C 97 % 0 lf 1010,2 hPa 0,0 l/m 2 min 0 min 442 W/m 23,0 km/h (4 Bft) 93,62 %
12.07.2017 15:56 16,7 C 19,4 C 20,0 C 97 % 0 lf 1010,3 hPa 0,0 l/m 2 min 0 min 655 W/m 33,5 km/h (5 Bft) 95,65 %
12.07.2017 15:58 16,9 C 19,4 C 20,0 C 97 % 0 lf 1010,3 hPa 0,0 l/m 2 min 0 min 417 W/m 25,1 km/h (4 Bft) 95,74 %
12.07.2017 16:00 16,9 C 19,4 C 19,4 C 97 % 0 lf 1010,4 hPa 0,0 l/m 2 min 0 min 453 W/m 23,0 km/h (4 Bft) 93,62 %
12.07.2017 16:02 17,0 C 18,9 C 19,4 C 97 % 0 lf 1010,5 hPa 0,0 l/m 2 min 0 min 382 W/m 25,1 km/h (4 Bft) 93,62 %
12.07.2017 16:04 17,1 C 18,3 C 18,9 C 97 % 0 lf 1010,6 hPa 0,0 l/m 0 min 0 min 319 W/m 31,4 km/h (5 Bft) 89,36 %
12.07.2017 16:06 17,1 C 18,3 C 18,3 C 97 % 0 lf 1010,5 hPa 0,0 l/m 0 min 0 min 234 W/m 16,7 km/h (3 Bft) 91,30 %
12.07.2017 16:08 17,1 C 18,3 C 18,3 C 97 % 0 lf 1010,8 hPa 0,0 l/m 0 min 0 min 217 W/m 31,4 km/h (5 Bft) 95,74 %
12.07.2017 16:10 17,1 C 18,3 C 18,3 C 96 % 0 lf 1010,8 hPa 0,0 l/m 0 min 0 min 340 W/m 18,8 km/h (3 Bft) 93,62 %
12.07.2017 16:12 17,2 C 18,9 C 19,4 C 96 % 0 lf 1010,8 hPa 0,0 l/m 0 min 0 min 324 W/m 23,0 km/h (4 Bft) 95,74 %
12.07.2017 16:14 17,3 C 18,3 C 18,9 C 96 % 0 lf 1010,8 hPa 0,0 l/m 0 min 0 min 307 W/m 20,9 km/h (4 Bft) 93,62 %
12.07.2017 16:16 17,4 C 18,3 C 18,3 C 96 % 0 lf 1010,9 hPa 0,0 l/m 0 min 0 min 138 W/m 20,9 km/h (4 Bft) 95,74 %
12.07.2017 16:18 17,4 C 17,8 C 17,8 C 96 % 0 lf 1010,9 hPa 0,0 l/m 0 min 0 min 118 W/m 16,7 km/h (3 Bft) 97,83 %
12.07.2017 16:20 17,4 C 17,2 C 17,2 C 95 % 0 lf 1011,1 hPa 0,0 l/m 0 min 0 min 149 W/m 27,2 km/h (4 Bft) 97,87 %
12.07.2017 16:22 17,4 C 17,2 C 17,2 C 95 % 0 lf 1011,1 hPa 0,0 l/m 0 min 0 min 168 W/m 31,4 km/h (5 Bft) 93,62 %
12.07.2017 16:24 17,4 C 17,2 C 17,2 C 94 % 0 lf 1011,1 hPa 0,0 l/m 0 min 0 min 192 W/m 20,9 km/h (4 Bft) 97,87 %
12.07.2017 16:26 17,4 C 17,2 C 17,8 C 94 % 0 lf 1011,3 hPa 0,0 l/m 0 min 0 min 219 W/m 18,8 km/h (3 Bft) 95,74 %
12.07.2017 16:28 17,4 C 17,8 C 17,8 C 94 % 0 lf 1011,4 hPa 0,0 l/m 0 min 0 min 225 W/m 25,1 km/h (4 Bft) 97,87 %
12.07.2017 16:30 17,4 C 17,8 C 17,8 C 93 % 0 lf 1011,5 hPa 0,0 l/m 0 min 0 min 197 W/m 20,9 km/h (4 Bft) 97,83 %
12.07.2017 16:33 17,4 C 17,2 C 17,8 C 93 % 0 lf 1011,6 hPa 0,0 l/m 0 min 0 min 196 W/m 29,3 km/h (5 Bft) 97,18 %
12.07.2017 16:34 17,4 C 17,2 C 17,8 C 93 % 0 lf 1011,6 hPa 0,0 l/m 0 min 0 min 226 W/m 35,6 km/h (5 Bft) 95,65 %
12.07.2017 16:36 17,4 C 17,2 C 17,8 C 92 % 0 lf 1011,7 hPa 0,0 l/m 0 min 0 min 162 W/m 29,3 km/h (5 Bft) 96,30 %
12.07.2017 16:38 17,4 C 17,2 C 17,2 C 92 % 0 lf 1011,8 hPa 0,0 l/m 0 min 0 min 152 W/m 46,0 km/h (6 Bft) 93,62 %
12.07.2017 16:40 17,3 C 16,7 C 17,8 C 92 % 0 lf 1011,9 hPa 0,0 l/m 0 min 0 min 220 W/m 37,7 km/h (5 Bft) 97,87 %
12.07.2017 16:42 17,3 C 16,7 C 17,8 C 91 % 0 lf 1011,9 hPa 0,0 l/m 0 min 0 min 320 W/m 33,5 km/h (5 Bft) 97,87 %
12.07.2017 16:44 17,2 C 17,2 C 17,8 C 91 % 0 lf 1012,0 hPa 0,0 l/m 0 min 0 min 297 W/m 31,4 km/h (5 Bft) 95,74 %
12.07.2017 16:46 17,2 C 17,2 C 17,8 C 90 % 0 lf 1012,2 hPa 0,0 l/m 0 min 0 min 227 W/m 29,3 km/h (5 Bft) 97,83 %
12.07.2017 16:48 17,3 C 17,2 C 17,8 C 90 % 0 lf 1012,3 hPa 0,0 l/m 0 min 0 min 212 W/m 29,3 km/h (5 Bft) 97,87 %
12.07.2017 16:50 17,3 C 17,8 C 18,3 C 90 % 0 lf 1012,3 hPa 0,0 l/m 0 min 0 min 247 W/m 31,4 km/h (5 Bft) 95,74 %
12.07.2017 16:52 17,3 C 17,8 C 18,9 C 90 % 0 lf 1012,4 hPa 0,0 l/m 0 min 0 min 289 W/m 27,2 km/h (4 Bft) 97,87 %
12.07.2017 16:54 17,3 C 18,3 C 18,3 C 90 % 0 lf 1012,5 hPa 0,0 l/m 2 min 0 min 340 W/m 31,4 km/h (5 Bft) 95,74 %
12.07.2017 16:56 17,3 C 18,3 C 17,8 C 89 % 0 lf 1012,5 hPa 0,0 l/m 0 min 0 min 272 W/m 31,4 km/h (5 Bft) 97,87 %
12.07.2017 16:58 17,2 C 18,9 C 18,3 C 89 % 0 lf 1012,6 hPa 0,0 l/m 0 min 0 min 246 W/m 25,1 km/h (4 Bft) 95,65 %
12.07.2017 17:00 17,2 C 18,3 C 17,8 C 89 % 0 lf 1012,6 hPa 0,0 l/m 0 min 0 min 213 W/m 37,7 km/h (5 Bft) 93,62 %
12.07.2017 17:02 17,2 C 17,8 C 17,2 C 88 % 0 lf 1012,7 hPa 0,0 l/m 0 min 0 min 172 W/m 37,7 km/h (5 Bft) 97,87 %
12.07.2017 17:04 17,1 C 17,8 C 16,7 C 88 % 0 lf 1012,8 hPa 0,0 l/m 0 min 0 min 118 W/m 20,9 km/h (4 Bft) 97,87 %
12.07.2017 17:06 17,1 C 17,8 C 16,7 C 88 % 0 lf 1012,8 hPa 0,0 l/m 0 min 0 min 101 W/m 18,8 km/h (3 Bft) 100,00 %
12.07.2017 17:08 17,1 C 17,8 C 16,7 C 88 % 0 lf 1012,9 hPa 0,0 l/m 0 min 0 min 124 W/m 27,2 km/h (4 Bft) 95,74 %
12.07.2017 17:10 17,1 C 17,2 C 16,7 C 87 % 0 lf 1013,0 hPa 0,0 l/m 0 min 0 min 123 W/m 35,6 km/h (5 Bft) 93,62 %
12.07.2017 17:12 17,0 C 17,2 C 16,7 C 87 % 0 lf 1013,0 hPa 0,0 l/m 0 min 0 min 113 W/m 29,3 km/h (5 Bft) 91,30 %
12.07.2017 17:14 16,9 C 17,2 C 16,7 C 87 % 0 lf 1013,0 hPa 0,0 l/m 0 min 0 min 118 W/m 33,5 km/h (5 Bft) 93,62 %
12.07.2017 17:16 16,9 C 17,2 C 16,7 C 88 % 0 lf 1013,1 hPa 0,0 l/m 0 min 0 min 124 W/m 29,3 km/h (5 Bft) 95,92 %
12.07.2017 17:18 16,9 C 17,2 C 16,1 C 87 % 0 lf 1013,2 hPa 0,0 l/m 0 min 0 min 122 W/m 31,4 km/h (5 Bft) 97,83 %
12.07.2017 17:20 16,8 C 17,2 C 16,1 C 87 % 0 lf 1013,2 hPa 0,0 l/m 0 min 0 min 114 W/m 23,0 km/h (4 Bft) 95,74 %
12.07.2017 17:22 16,8 C 17,2 C 16,1 C 87 % 0 lf 1013,4 hPa 0,0 l/m 0 min 0 min 127 W/m 25,1 km/h (4 Bft) 95,74 %
12.07.2017 17:24 16,8 C 17,2 C 16,7 C 87 % 0 lf 1013,5 hPa 0,0 l/m 0 min 0 min 155 W/m 20,9 km/h (4 Bft) 97,87 %
12.07.2017 17:26 16,7 C 17,2 C 16,7 C 87 % 0 lf 1013,6 hPa 0,0 l/m 0 min 0 min 164 W/m 29,3 km/h (5 Bft) 95,74 %
12.07.2017 17:28 16,7 C 17,8 C 16,7 C 88 % 0 lf 1013,7 hPa 0,0 l/m 0 min 0 min 179 W/m 23,0 km/h (4 Bft) 97,83 %
12.07.2017 17:30 16,7 C 17,8 C 16,7 C 87 % 0 lf 1013,7 hPa 0,0 l/m 0 min 0 min 204 W/m 25,1 km/h (4 Bft) 91,49 %
12.07.2017 17:32 16,7 C 17,8 C 17,2 C 87 % 0 lf 1013,8 hPa 0,0 l/m 0 min 0 min 242 W/m 23,0 km/h (4 Bft) 95,74 %
12.07.2017 17:34 16,7 C 18,3 C 17,8 C 87 % 0 lf 1013,8 hPa 0,0 l/m 0 min 0 min 276 W/m 25,1 km/h (4 Bft) 95,74 %
12.07.2017 17:36 16,7 C 18,3 C 17,8 C 87 % 0 lf 1013,8 hPa 0,0 l/m 0 min 0 min 257 W/m 27,2 km/h (4 Bft) 97,87 %
12.07.2017 17:38 16,7 C 18,3 C 17,8 C 87 % 0 lf 1013,9 hPa 0,0 l/m 0 min 0 min 262 W/m 27,2 km/h (4 Bft) 97,87 %
12.07.2017 17:40 16,7 C 18,3 C 17,8 C 87 % 0 lf 1013,8 hPa 0,0 l/m 0 min 0 min 262 W/m 23,0 km/h (4 Bft) 97,83 %
12.07.2017 17:42 16,7 C 18,3 C 17,8 C 87 % 0 lf 1013,9 hPa 0,0 l/m 0 min 0 min 254 W/m 37,7 km/h (5 Bft) 97,87 %
12.07.2017 17:44 16,8 C 18,9 C 17,8 C 87 % 0 lf 1013,9 hPa 0,0 l/m 0 min 0 min 267 W/m 27,2 km/h (4 Bft) 95,74 %
12.07.2017 17:46 16,8 C 18,3 C 17,2 C 86 % 0 lf 1014,0 hPa 0,0 l/m 0 min 0 min 225 W/m 25,1 km/h (4 Bft) 95,74 %
12.07.2017 17:48 16,8 C 18,3 C 17,2 C 86 % 0 lf 1014,0 hPa 0,0 l/m 0 min 0 min 126 W/m 25,1 km/h (4 Bft) 93,62 %
12.07.2017 17:50 16,8 C 17,8 C 16,7 C 86 % 0 lf 1014,1 hPa 0,0 l/m 0 min 0 min 90 W/m 25,1 km/h (4 Bft) 95,74 %
12.07.2017 17:52 16,8 C 17,8 C 16,7 C 86 % 0 lf 1014,2 hPa 0,0 l/m 0 min 0 min 81 W/m 25,1 km/h (4 Bft) 97,83 %
12.07.2017 17:54 16,9 C 17,2 C 16,7 C 86 % 0 lf 1014,2 hPa 0,0 l/m 0 min 0 min 58 W/m 25,1 km/h (4 Bft) 97,87 %
12.07.2017 17:56 16,9 C 17,2 C 16,1 C 86 % 1 lf 1014,3 hPa 0,0 l/m 0 min 0 min 33 W/m 37,7 km/h (5 Bft) 97,87 %
12.07.2017 17:58 16,8 C 16,7 C 15,0 C 86 % 14 lf 1014,3 hPa 0,0 l/m 0 min 2 min 33 W/m 33,5 km/h (5 Bft) 100,00 %
12.07.2017 18:00 16,8 C 16,7 C 15,0 C 86 % 11 lf 1014,3 hPa 0,0 l/m 0 min 2 min 56 W/m 33,5 km/h (5 Bft) 100,00 %
12.07.2017 18:02 16,7 C 16,1 C 15,0 C 86 % 3 lf 1014,5 hPa 0,0 l/m 0 min 2 min 77 W/m 43,9 km/h (6 Bft) 97,87 %
12.07.2017 18:04 16,7 C 16,7 C 15,0 C 86 % 0 lf 1014,4 hPa 0,0 l/m 0 min 0 min 90 W/m 25,1 km/h (4 Bft) 100,00 %
12.07.2017 18:06 16,6 C 16,7 C 15,6 C 86 % 1 lf 1014,5 hPa 0,0 l/m 0 min 0 min 97 W/m 25,1 km/h (4 Bft) 97,87 %
12.07.2017 18:10 16,4 C 16,7 C 15,6 C 86 % 0 lf 1014,8 hPa 0,0 l/m 0 min 0 min 129 W/m 31,4 km/h (5 Bft) 97,87 %
12.07.2017 18:12 16,4 C 17,2 C 16,1 C 86 % 0 lf 1014,8 hPa 0,0 l/m 0 min 0 min 227 W/m 31,4 km/h (5 Bft) 100,00 %
12.07.2017 18:14 16,4 C 17,2 C 16,7 C 86 % 0 lf 1014,8 hPa 0,0 l/m 2 min 0 min 244 W/m 20,9 km/h (4 Bft) 100,00 %
12.07.2017 18:16 16,4 C 17,8 C 16,7 C 86 % 0 lf 1014,8 hPa 0,0 l/m 0 min 0 min 203 W/m 23,0 km/h (4 Bft) 100,00 %
12.07.2017 18:18 16,4 C 17,8 C 16,7 C 86 % 0 lf 1014,9 hPa 0,0 l/m 0 min 0 min 178 W/m 25,1 km/h (4 Bft) 95,74 %
12.07.2017 18:20 16,4 C 17,8 C 16,7 C 86 % 0 lf 1014,9 hPa 0,0 l/m 0 min 0 min 185 W/m 23,0 km/h (4 Bft) 100,00 %
12.07.2017 18:22 16,4 C 17,8 C 16,7 C 86 % 0 lf 1014,9 hPa 0,0 l/m 0 min 0 min 202 W/m 27,2 km/h (4 Bft) 97,87 %
12.07.2017 18:24 16,4 C 17,8 C 17,2 C 86 % 0 lf 1014,9 hPa 0,0 l/m 0 min 0 min 228 W/m 20,9 km/h (4 Bft) 100,00 %
12.07.2017 18:26 16,4 C 18,3 C 17,2 C 86 % 0 lf 1014,9 hPa 0,0 l/m 2 min 0 min 242 W/m 14,6 km/h (3 Bft) 97,87 %
12.07.2017 18:28 16,4 C 18,3 C 17,2 C 86 % 0 lf 1014,9 hPa 0,0 l/m 2 min 0 min 240 W/m 18,8 km/h (3 Bft) 97,83 %
12.07.2017 18:30 16,5 C 17,8 C 17,2 C 86 % 0 lf 1014,9 hPa 0,0 l/m 0 min 0 min 205 W/m 27,2 km/h (4 Bft) 95,74 %
12.07.2017 18:32 16,5 C 17,8 C 16,7 C 85 % 0 lf 1014,8 hPa 0,0 l/m 0 min 0 min 181 W/m 27,2 km/h (4 Bft) 95,74 %
12.07.2017 18:34 16,5 C 17,8 C 16,7 C 85 % 0 lf 1014,9 hPa 0,0 l/m 0 min 0 min 155 W/m 16,7 km/h (3 Bft) 95,74 %
12.07.2017 18:36 16,5 C 17,8 C 16,7 C 85 % 0 lf 1014,9 hPa 0,0 l/m 0 min 0 min 155 W/m 14,6 km/h (3 Bft) 95,74 %
12.07.2017 18:38 16,5 C 17,8 C 17,2 C 85 % 0 lf 1015,0 hPa 0,0 l/m 0 min 0 min 169 W/m 16,7 km/h (3 Bft) 97,87 %
12.07.2017 18:40 16,6 C 18,3 C 17,2 C 85 % 0 lf 1015,0 hPa 0,0 l/m 0 min 0 min 179 W/m 12,6 km/h (3 Bft) 95,65 %
12.07.2017 18:42 16,6 C 18,3 C 17,2 C 86 % 0 lf 1015,1 hPa 0,0 l/m 0 min 0 min 195 W/m 20,9 km/h (4 Bft) 91,49 %
12.07.2017 18:44 16,6 C 18,3 C 17,8 C 86 % 0 lf 1015,1 hPa 0,0 l/m 2 min 0 min 279 W/m 18,8 km/h (3 Bft) 95,74 %
12.07.2017 18:46 16,7 C 18,3 C 17,8 C 86 % 0 lf 1015,2 hPa 0,0 l/m 2 min 0 min 336 W/m 29,3 km/h (5 Bft) 93,62 %
12.07.2017 18:48 16,7 C 18,3 C 17,8 C 86 % 0 lf 1015,4 hPa 0,0 l/m 2 min 0 min 242 W/m 16,7 km/h (3 Bft) 95,74 %
12.07.2017 18:50 16,8 C 18,9 C 17,8 C 85 % 0 lf 1015,4 hPa 0,0 l/m 0 min 0 min 176 W/m 14,6 km/h (3 Bft) 95,74 %
12.07.2017 18:52 16,8 C 18,9 C 17,8 C 85 % 0 lf 1015,4 hPa 0,0 l/m 0 min 0 min 169 W/m 14,6 km/h (3 Bft) 95,65 %
12.07.2017 18:54 16,8 C 18,3 C 17,8 C 85 % 0 lf 1015,4 hPa 0,0 l/m 0 min 0 min 159 W/m 23,0 km/h (4 Bft) 93,62 %
12.07.2017 18:56 16,9 C 18,3 C 17,8 C 85 % 0 lf 1015,4 hPa 0,0 l/m 0 min 0 min 158 W/m 14,6 km/h (3 Bft) 95,74 %
12.07.2017 18:58 16,9 C 18,9 C 17,8 C 85 % 0 lf 1015,4 hPa 0,0 l/m 0 min 0 min 169 W/m 20,9 km/h (4 Bft) 93,62 %
12.07.2017 19:00 16,9 C 18,3 C 17,8 C 85 % 0 lf 1015,5 hPa 0,0 l/m 0 min 0 min 185 W/m 20,9 km/h (4 Bft) 95,74 %
12.07.2017 19:02 17,0 C 18,3 C 17,8 C 85 % 0 lf 1015,5 hPa 0,0 l/m 2 min 0 min 224 W/m 18,8 km/h (3 Bft) 93,48 %
12.07.2017 19:05 17,1 C 18,3 C 17,8 C 85 % 0 lf 1015,6 hPa 0,0 l/m 3 min 0 min 225 W/m 20,9 km/h (4 Bft) 96,49 %
12.07.2017 19:10 17,1 C 18,3 C 16,7 C 84 % 0 lf 1015,7 hPa 0,0 l/m 5 min 0 min 288 W/m 27,2 km/h (4 Bft) 92,98 %
12.07.2017 19:15 17,1 C 18,3 C 17,2 C 83 % 0 lf 1015,8 hPa 0,0 l/m 5 min 0 min 421 W/m 35,6 km/h (5 Bft) 97,37 %
12.07.2017 19:22 17,2 C 18,3 C 16,7 C 82 % 0 lf 1015,8 hPa 0,0 l/m 5 min 0 min 320 W/m 20,9 km/h (4 Bft) 95,74 %
12.07.2017 19:24 17,2 C 18,3 C 16,7 C 82 % 0 lf 1015,9 hPa 0,0 l/m 2 min 0 min 322 W/m 25,1 km/h (4 Bft) 97,92 %
12.07.2017 19:26 17,2 C 17,8 C 16,7 C 82 % 0 lf 1015,9 hPa 0,0 l/m 2 min 0 min 299 W/m 18,8 km/h (3 Bft) 97,83 %
12.07.2017 19:28 17,2 C 17,8 C 16,7 C 82 % 0 lf 1015,9 hPa 0,0 l/m 2 min 0 min 294 W/m 20,9 km/h (4 Bft) 95,74 %
12.07.2017 19:30 17,3 C 17,8 C 16,1 C 81 % 0 lf 1016,1 hPa 0,0 l/m 0 min 0 min 137 W/m 25,1 km/h (4 Bft) 97,87 %
12.07.2017 19:32 17,3 C 17,2 C 16,1 C 81 % 0 lf 1016,1 hPa 0,0 l/m 0 min 0 min 58 W/m 23,0 km/h (4 Bft) 97,87 %
12.07.2017 19:34 17,2 C 17,2 C 15,6 C 81 % 0 lf 1016,2 hPa 0,0 l/m 0 min 0 min 53 W/m 29,3 km/h (5 Bft) 97,87 %
12.07.2017 19:36 17,2 C 17,2 C 15,6 C 80 % 0 lf 1016,2 hPa 0,0 l/m 0 min 0 min 56 W/m 18,8 km/h (3 Bft) 97,87 %
12.07.2017 19:38 17,2 C 16,7 C 15,6 C 80 % 0 lf 1016,3 hPa 0,0 l/m 0 min 0 min 58 W/m 16,7 km/h (3 Bft) 95,65 %
12.07.2017 19:40 17,1 C 16,7 C 15,6 C 80 % 0 lf 1016,3 hPa 0,0 l/m 0 min 0 min 64 W/m 25,1 km/h (4 Bft) 97,87 %
12.07.2017 19:42 17,1 C 16,7 C 15,6 C 80 % 0 lf 1016,4 hPa 0,0 l/m 0 min 0 min 75 W/m 25,1 km/h (4 Bft) 97,87 %
12.07.2017 19:44 17,0 C 16,7 C 15,6 C 79 % 0 lf 1016,3 hPa 0,0 l/m 0 min 0 min 108 W/m 20,9 km/h (4 Bft) 97,87 %
12.07.2017 19:46 17,0 C 16,7 C 15,6 C 79 % 0 lf 1016,4 hPa 0,0 l/m 0 min 0 min 112 W/m 14,6 km/h (3 Bft) 93,62 %
12.07.2017 19:48 16,9 C 16,7 C 15,6 C 80 % 0 lf 1016,4 hPa 0,0 l/m 2 min 0 min 203 W/m 20,9 km/h (4 Bft) 97,87 %
12.07.2017 19:50 16,9 C 17,2 C 15,6 C 80 % 0 lf 1016,5 hPa 0,0 l/m 2 min 0 min 238 W/m 23,0 km/h (4 Bft) 95,65 %
12.07.2017 19:52 16,9 C 17,2 C 15,6 C 80 % 0 lf 1016,5 hPa 0,0 l/m 2 min 0 min 231 W/m 20,9 km/h (4 Bft) 97,87 %
12.07.2017 19:54 16,9 C 17,2 C 15,6 C 79 % 0 lf 1016,5 hPa 0,0 l/m 2 min 0 min 207 W/m 27,2 km/h (4 Bft) 95,74 %
12.07.2017 19:56 16,9 C 17,2 C 15,6 C 79 % 0 lf 1016,5 hPa 0,0 l/m 2 min 0 min 192 W/m 25,1 km/h (4 Bft) 93,62 %
12.07.2017 19:58 16,8 C 17,2 C 15,6 C 79 % 0 lf 1016,5 hPa 0,0 l/m 2 min 0 min 175 W/m 23,0 km/h (4 Bft) 95,74 %
12.07.2017 20:00 16,8 C 16,7 C 15,6 C 79 % 0 lf 1016,5 hPa 0,0 l/m 2 min 0 min 175 W/m 18,8 km/h (3 Bft) 93,75 %
12.07.2017 20:02 16,8 C 16,7 C 15,6 C 80 % 0 lf 1016,5 hPa 0,0 l/m 2 min 0 min 170 W/m 14,6 km/h (3 Bft) 93,62 %
12.07.2017 20:04 16,8 C 16,7 C 15,6 C 80 % 0 lf 1016,6 hPa 0,0 l/m 2 min 0 min 165 W/m 12,6 km/h (3 Bft) 92,86 %
12.07.2017 20:08 16,8 C 16,7 C 15,6 C 79 % 0 lf 1016,8 hPa 0,0 l/m 4 min 0 min 162 W/m 31,4 km/h (5 Bft) 97,73 %
12.07.2017 20:10 16,8 C 17,2 C 15,6 C 78 % 0 lf 1016,9 hPa 0,0 l/m 2 min 0 min 120 W/m 25,1 km/h (4 Bft) 97,87 %
12.07.2017 20:12 16,8 C 17,2 C 15,6 C 77 % 0 lf 1016,9 hPa 0,0 l/m 2 min 0 min 166 W/m 33,5 km/h (5 Bft) 97,87 %
12.07.2017 20:14 16,8 C 17,2 C 15,6 C 76 % 0 lf 1016,9 hPa 0,0 l/m 2 min 0 min 150 W/m 31,4 km/h (5 Bft) 93,62 %
12.07.2017 20:16 16,8 C 17,2 C 15,6 C 75 % 0 lf 1017,0 hPa 0,0 l/m 2 min 0 min 140 W/m 33,5 km/h (5 Bft) 97,83 %
12.07.2017 20:18 16,8 C 17,2 C 15,6 C 74 % 0 lf 1017,0 hPa 0,0 l/m 2 min 0 min 125 W/m 18,8 km/h (3 Bft) 97,87 %
12.07.2017 20:20 16,8 C 16,7 C 15,6 C 74 % 0 lf 1017,1 hPa 0,0 l/m 2 min 0 min 118 W/m 23,0 km/h (4 Bft) 93,62 %
12.07.2017 20:22 16,8 C 16,7 C 15,6 C 74 % 0 lf 1017,2 hPa 0,0 l/m 0 min 0 min 62 W/m 16,7 km/h (3 Bft) 98,18 %
12.07.2017 20:24 16,8 C 16,7 C 15,6 C 73 % 0 lf 1017,2 hPa 0,0 l/m 2 min 0 min 102 W/m 20,9 km/h (4 Bft) 95,74 %
12.07.2017 20:26 16,8 C 16,7 C 15,0 C 74 % 0 lf 1017,2 hPa 0,0 l/m 2 min 0 min 105 W/m 12,6 km/h (3 Bft) 97,87 %
12.07.2017 20:28 16,8 C 16,7 C 15,0 C 73 % 0 lf 1017,3 hPa 0,0 l/m 2 min 0 min 103 W/m 27,2 km/h (4 Bft) 97,83 %
12.07.2017 20:30 16,8 C 16,7 C 15,0 C 73 % 0 lf 1017,3 hPa 0,0 l/m 2 min 0 min 100 W/m 20,9 km/h (4 Bft) 95,74 %
12.07.2017 20:32 16,8 C 16,7 C 15,0 C 74 % 0 lf 1017,4 hPa 0,0 l/m 2 min 0 min 94 W/m 18,8 km/h (3 Bft) 91,49 %
12.07.2017 20:34 16,8 C 16,7 C 15,0 C 74 % 0 lf 1017,4 hPa 0,0 l/m 2 min 0 min 85 W/m 10,5 km/h (2 Bft) 95,74 %
12.07.2017 20:36 16,8 C 16,7 C 15,0 C 74 % 0 lf 1017,4 hPa 0,0 l/m 2 min 0 min 81 W/m 16,7 km/h (3 Bft) 95,74 %
12.07.2017 20:38 16,8 C 16,1 C 15,0 C 74 % 0 lf 1017,4 hPa 0,0 l/m 2 min 0 min 76 W/m 14,6 km/h (3 Bft) 93,62 %
12.07.2017 20:40 16,8 C 16,1 C 15,0 C 75 % 0 lf 1017,4 hPa 0,0 l/m 2 min 0 min 72 W/m 16,7 km/h (3 Bft) 100,00 %
12.07.2017 20:42 16,7 C 16,1 C 15,0 C 75 % 0 lf 1017,5 hPa 0,0 l/m 2 min 0 min 68 W/m 14,6 km/h (3 Bft) 95,65 %
12.07.2017 20:44 16,7 C 16,1 C 15,0 C 75 % 0 lf 1017,5 hPa 0,0 l/m 2 min 0 min 65 W/m 14,6 km/h (3 Bft) 95,74 %
12.07.2017 20:46 16,7 C 16,1 C 15,0 C 75 % 0 lf 1017,5 hPa 0,0 l/m 0 min 0 min 60 W/m 18,8 km/h (3 Bft) 97,87 %
12.07.2017 20:48 16,7 C 16,1 C 14,4 C 76 % 0 lf 1017,5 hPa 0,0 l/m 0 min 0 min 57 W/m 8,4 km/h (2 Bft) 97,87 %
12.07.2017 20:50 16,7 C 16,1 C 14,4 C 76 % 0 lf 1017,5 hPa 0,0 l/m 0 min 0 min 54 W/m 10,5 km/h (2 Bft) 100,00 %
12.07.2017 20:52 16,6 C 16,1 C 14,4 C 76 % 0 lf 1017,6 hPa 0,0 l/m 0 min 0 min 51 W/m 10,5 km/h (2 Bft) 95,65 %
12.07.2017 20:54 16,6 C 16,1 C 14,4 C 76 % 0 lf 1017,6 hPa 0,0 l/m 0 min 0 min 47 W/m 14,6 km/h (3 Bft) 95,74 %
12.07.2017 20:56 16,6 C 15,6 C 14,4 C 77 % 0 lf 1017,6 hPa 0,0 l/m 0 min 0 min 46 W/m 10,5 km/h (2 Bft) 95,74 %
12.07.2017 20:58 16,6 C 15,6 C 14,4 C 77 % 0 lf 1017,7 hPa 0,0 l/m 0 min 0 min 46 W/m 12,6 km/h (3 Bft) 97,87 %
12.07.2017 21:00 16,5 C 15,6 C 14,4 C 77 % 0 lf 1017,7 hPa 0,0 l/m 2 min 0 min 49 W/m 8,4 km/h (2 Bft) 97,62 %
12.07.2017 21:02 16,5 C 15,6 C 14,4 C 77 % 0 lf 1017,7 hPa 0,0 l/m 2 min 0 min 49 W/m 12,6 km/h (3 Bft) 95,92 %
12.07.2017 21:04 16,4 C 15,6 C 14,4 C 77 % 0 lf 1017,8 hPa 0,0 l/m 2 min 0 min 47 W/m 16,7 km/h (3 Bft) 97,96 %
12.07.2017 21:06 16,4 C 15,6 C 14,4 C 77 % 0 lf 1017,8 hPa 0,0 l/m 2 min 0 min 45 W/m 8,4 km/h (2 Bft) 97,87 %
12.07.2017 21:08 16,4 C 15,6 C 14,4 C 77 % 0 lf 1017,8 hPa 0,0 l/m 2 min 0 min 39 W/m 8,4 km/h (2 Bft) 97,87 %
12.07.2017 21:10 16,4 C 15,6 C 14,4 C 77 % 0 lf 1017,8 hPa 0,0 l/m 2 min 0 min 34 W/m 12,6 km/h (3 Bft) 97,87 %
12.07.2017 21:12 16,3 C 15,6 C 14,4 C 77 % 0 lf 1017,9 hPa 0,0 l/m 0 min 0 min 29 W/m 10,5 km/h (2 Bft) 95,74 %
12.07.2017 21:14 16,3 C 15,6 C 13,9 C 77 % 0 lf 1017,9 hPa 0,0 l/m 0 min 0 min 26 W/m 12,6 km/h (3 Bft) 93,62 %
12.07.2017 21:16 16,3 C 15,0 C 13,9 C 77 % 0 lf 1017,9 hPa 0,0 l/m 0 min 0 min 25 W/m 12,6 km/h (3 Bft) 95,65 %
12.07.2017 21:18 16,2 C 15,0 C 13,9 C 77 % 0 lf 1017,9 hPa 0,0 l/m 0 min 0 min 23 W/m 8,4 km/h (2 Bft) 97,87 %
12.07.2017 21:20 16,2 C 15,0 C 13,9 C 77 % 0 lf 1018,0 hPa 0,0 l/m 2 min 0 min 22 W/m 10,5 km/h (2 Bft) 100,00 %
12.07.2017 21:22 16,2 C 15,0 C 13,3 C 77 % 0 lf 1018,1 hPa 0,0 l/m 2 min 0 min 21 W/m 10,5 km/h (2 Bft) 100,00 %
12.07.2017 21:24 16,1 C 15,0 C 13,3 C 78 % 0 lf 1018,1 hPa 0,0 l/m 0 min 0 min 19 W/m 12,6 km/h (3 Bft) 97,87 %
12.07.2017 21:26 16,1 C 14,4 C 13,3 C 77 % 0 lf 1018,3 hPa 0,0 l/m 0 min 0 min 19 W/m 10,5 km/h (2 Bft) 97,87 %
12.07.2017 21:28 16,1 C 14,4 C 13,3 C 77 % 0 lf 1018,3 hPa 0,0 l/m 0 min 0 min 18 W/m 10,5 km/h (2 Bft) 100,00 %
12.07.2017 21:30 16,0 C 14,4 C 13,3 C 77 % 0 lf 1018,4 hPa 0,0 l/m 0 min 0 min 17 W/m 12,6 km/h (3 Bft) 97,87 %
12.07.2017 21:32 15,9 C 14,4 C 13,3 C 77 % 0 lf 1018,4 hPa 0,0 l/m 0 min 0 min 16 W/m 10,5 km/h (2 Bft) 97,87 %
12.07.2017 21:34 15,9 C 14,4 C 12,8 C 77 % 0 lf 1018,5 hPa 0,0 l/m 0 min 0 min 14 W/m 8,4 km/h (2 Bft) 97,87 %
12.07.2017 21:36 15,8 C 14,4 C 12,8 C 77 % 0 lf 1018,5 hPa 0,0 l/m 0 min 0 min 14 W/m 8,4 km/h (2 Bft) 91,49 %
12.07.2017 21:38 15,8 C 14,4 C 12,8 C 77 % 0 lf 1018,5 hPa 0,0 l/m 0 min 0 min 12 W/m 10,5 km/h (2 Bft) 95,74 %
12.07.2017 21:40 15,7 C 13,9 C 12,8 C 77 % 0 lf 1018,6 hPa 0,0 l/m 0 min 0 min 12 W/m 8,4 km/h (2 Bft) 97,83 %
12.07.2017 21:42 15,7 C 13,9 C 12,8 C 77 % 0 lf 1018,6 hPa 0,0 l/m 0 min 0 min 11 W/m 12,6 km/h (3 Bft) 95,74 %
12.07.2017 21:44 15,6 C 13,9 C 12,2 C 77 % 0 lf 1018,6 hPa 0,0 l/m 0 min 0 min 11 W/m 8,4 km/h (2 Bft) 95,74 %
12.07.2017 21:46 15,6 C 13,9 C 12,2 C 77 % 0 lf 1018,6 hPa 0,0 l/m 0 min 0 min 9 W/m 10,5 km/h (2 Bft) 93,62 %
12.07.2017 21:48 15,5 C 13,9 C 12,2 C 77 % 0 lf 1018,7 hPa 0,0 l/m 0 min 0 min 9 W/m 10,5 km/h (2 Bft) 97,87 %
12.07.2017 21:50 15,4 C 13,9 C 12,2 C 77 % 0 lf 1018,9 hPa 0,0 l/m 0 min 0 min 9 W/m 8,4 km/h (2 Bft) 97,87 %
12.07.2017 21:52 15,4 C 13,9 C 12,2 C 78 % 0 lf 1019,0 hPa 0,0 l/m 0 min 0 min 9 W/m 6,3 km/h (2 Bft) 97,83 %
12.07.2017 21:54 15,3 C 13,9 C 12,2 C 78 % 0 lf 1019,0 hPa 0,0 l/m 0 min 0 min 8 W/m 12,6 km/h (3 Bft) 95,74 %
12.07.2017 21:56 15,3 C 13,3 C 12,2 C 78 % 0 lf 1019,0 hPa 0,0 l/m 0 min 0 min 7 W/m 8,4 km/h (2 Bft) 97,87 %
12.07.2017 21:58 15,2 C 13,3 C 12,2 C 78 % 0 lf 1019,0 hPa 0,0 l/m 0 min 0 min 7 W/m 8,4 km/h (2 Bft) 95,74 %
12.07.2017 22:00 15,2 C 13,3 C 12,2 C 78 % 0 lf 1019,0 hPa 0,0 l/m 0 min 0 min 7 W/m 8,4 km/h (2 Bft) 93,62 %
12.07.2017 22:02 15,1 C 13,3 C 11,7 C 78 % 0 lf 1019,1 hPa 0,0 l/m 0 min 0 min 5 W/m 10,5 km/h (2 Bft) 97,83 %
12.07.2017 22:04 15,1 C 12,8 C 11,7 C 78 % 0 lf 1019,1 hPa 0,0 l/m 0 min 0 min 5 W/m 6,3 km/h (2 Bft) 97,87 %
12.07.2017 22:06 15,0 C 12,8 C 11,7 C 78 % 0 lf 1019,1 hPa 0,0 l/m 0 min 0 min 5 W/m 4,2 km/h (1 Bft) 97,87 %
12.07.2017 22:08 14,9 C 12,8 C 11,7 C 78 % 0 lf 1019,1 hPa 0,0 l/m 0 min 0 min 5 W/m 6,3 km/h (2 Bft) 97,87 %
12.07.2017 22:10 14,9 C 12,8 C 11,1 C 78 % 0 lf 1019,2 hPa 0,0 l/m 0 min 0 min 5 W/m 4,2 km/h (1 Bft) 95,74 %
12.07.2017 22:12 14,8 C 12,8 C 11,1 C 78 % 0 lf 1019,2 hPa 0,0 l/m 0 min 0 min 5 W/m 4,2 km/h (1 Bft) 95,74 %
12.07.2017 22:14 14,8 C 12,2 C 11,1 C 79 % 0 lf 1019,2 hPa 0,0 l/m 0 min 0 min 5 W/m 6,3 km/h (2 Bft) 97,87 %
12.07.2017 22:16 14,7 C 12,8 C 11,1 C 78 % 0 lf 1019,3 hPa 0,0 l/m 0 min 0 min 5 W/m 6,3 km/h (2 Bft) 100,00 %
12.07.2017 22:18 14,7 C 12,2 C 11,1 C 79 % 0 lf 1019,3 hPa 0,0 l/m 0 min 0 min 5 W/m 2,1 km/h (1 Bft) 95,74 %
12.07.2017 22:20 14,6 C 12,2 C 11,1 C 79 % 0 lf 1019,3 hPa 0,0 l/m 0 min 0 min 5 W/m 6,3 km/h (2 Bft) 97,87 %
12.07.2017 22:22 14,6 C 12,2 C 10,6 C 79 % 0 lf 1019,4 hPa 0,0 l/m 0 min 0 min 5 W/m 4,2 km/h (1 Bft) 95,74 %
12.07.2017 22:24 14,5 C 12,2 C 10,6 C 79 % 0 lf 1019,4 hPa 0,0 l/m 0 min 0 min 0 W/m 6,3 km/h (2 Bft) 100,00 %
12.07.2017 22:26 14,4 C 12,2 C 10,6 C 79 % 0 lf 1019,4 hPa 0,0 l/m 0 min 0 min 5 W/m 6,3 km/h (2 Bft) 100,00 %
12.07.2017 22:28 14,3 C 11,7 C 10,6 C 79 % 0 lf 1019,4 hPa 0,0 l/m 0 min 0 min 5 W/m 6,3 km/h (2 Bft) 97,87 %
12.07.2017 22:30 14,2 C 12,2 C 10,6 C 79 % 0 lf 1019,5 hPa 0,0 l/m 0 min 0 min 5 W/m 4,2 km/h (1 Bft) 100,00 %
12.07.2017 22:32 14,2 C 11,7 C 10,6 C 80 % 0 lf 1019,5 hPa 0,0 l/m 0 min 0 min 3 W/m 6,3 km/h (2 Bft) 100,00 %
12.07.2017 22:34 14,2 C 11,7 C 10,6 C 80 % 0 lf 1019,6 hPa 0,0 l/m 0 min 0 min 0 W/m 4,2 km/h (1 Bft) 100,00 %
12.07.2017 22:36 14,2 C 11,7 C 10,6 C 80 % 0 lf 1019,6 hPa 0,0 l/m 0 min 0 min 3 W/m 6,3 km/h (2 Bft) 95,74 %
12.07.2017 22:38 14,2 C 11,7 C 10,6 C 80 % 0 lf 1019,6 hPa 0,0 l/m 0 min 0 min 5 W/m 8,4 km/h (2 Bft) 97,83 %
12.07.2017 22:40 14,1 C 11,7 C 10,6 C 80 % 0 lf 1019,6 hPa 0,0 l/m 0 min 0 min 5 W/m 6,3 km/h (2 Bft) 100,00 %
12.07.2017 22:42 14,0 C 11,7 C 10,6 C 80 % 0 lf 1019,6 hPa 0,0 l/m 0 min 0 min 5 W/m 4,2 km/h (1 Bft) 95,74 %
12.07.2017 22:44 13,9 C 11,7 C 10,6 C 80 % 0 lf 1019,6 hPa 0,0 l/m 0 min 0 min 5 W/m 4,2 km/h (1 Bft) 95,74 %
12.07.2017 22:46 13,8 C 11,7 C 10,6 C 80 % 0 lf 1019,6 hPa 0,0 l/m 0 min 0 min 5 W/m 4,2 km/h (1 Bft) 93,62 %
12.07.2017 22:48 13,8 C 11,1 C 10,0 C 80 % 0 lf 1019,7 hPa 0,0 l/m 0 min 0 min 5 W/m 4,2 km/h (1 Bft) 93,62 %
12.07.2017 22:50 13,7 C 11,1 C 10,0 C 81 % 0 lf 1019,7 hPa 0,0 l/m 0 min 0 min 5 W/m 6,3 km/h (2 Bft) 91,30 %
12.07.2017 22:52 13,7 C 11,1 C 10,0 C 80 % 0 lf 1019,8 hPa 0,0 l/m 0 min 0 min 0 W/m 4,2 km/h (1 Bft) 91,49 %
12.07.2017 22:54 13,6 C 11,1 C 10,0 C 80 % 0 lf 1019,8 hPa 0,0 l/m 0 min 0 min 4 W/m 4,2 km/h (1 Bft) 87,23 %
12.07.2017 22:56 13,5 C 11,1 C 10,0 C 81 % 0 lf 1019,8 hPa 0,0 l/m 0 min 0 min 4 W/m 0,0 km/h (0 Bft) 93,62 %
12.07.2017 22:58 13,4 C 11,1 C 10,0 C 81 % 0 lf 1019,8 hPa 0,0 l/m 0 min 0 min 0 W/m 4,2 km/h (1 Bft) 93,62 %
12.07.2017 23:00 13,4 C 11,1 C 10,0 C 81 % 0 lf 1019,8 hPa 0,0 l/m 0 min 0 min 0 W/m 2,1 km/h (1 Bft) 89,36 %
12.07.2017 23:02 13,3 C 10,6 C 10,0 C 81 % 0 lf 1019,9 hPa 0,0 l/m 0 min 0 min 0 W/m 0,0 km/h (0 Bft) 93,48 %
12.07.2017 23:04 13,3 C 10,6 C 10,0 C 81 % 0 lf 1019,9 hPa 0,0 l/m 0 min 0 min 0 W/m 4,2 km/h (1 Bft) 91,49 %
12.07.2017 23:06 13,2 C 10,6 C 10,0 C 81 % 0 lf 1019,9 hPa 0,0 l/m 0 min 0 min 0 W/m 2,1 km/h (1 Bft) 93,62 %
12.07.2017 23:08 13,2 C 10,6 C 10,0 C 81 % 0 lf 1019,9 hPa 0,0 l/m 0 min 0 min 0 W/m 2,1 km/h (1 Bft) 91,49 %
12.07.2017 23:10 13,1 C 10,6 C 10,0 C 81 % 0 lf 1020,0 hPa 0,0 l/m 0 min 0 min 0 W/m 0,0 km/h (0 Bft) 89,36 %
12.07.2017 23:12 13,1 C 10,6 C 10,0 C 81 % 0 lf 1020,0 hPa 0,0 l/m 0 min 0 min 0 W/m 0,0 km/h (0 Bft) 93,48 %
12.07.2017 23:14 13,0 C 10,6 C 10,0 C 81 % 0 lf 1020,1 hPa 0,0 l/m 0 min 0 min 0 W/m 2,1 km/h (1 Bft) 95,74 %
12.07.2017 23:16 12,9 C 10,6 C 9,4 C 82 % 0 lf 1020,1 hPa 0,0 l/m 0 min 0 min 2 W/m 2,1 km/h (1 Bft) 95,74 %
12.07.2017 23:18 12,9 C 10,6 C 9,4 C 81 % 0 lf 1020,1 hPa 0,0 l/m 0 min 0 min 0 W/m 2,1 km/h (1 Bft) 91,49 %
12.07.2017 23:20 12,8 C 10,6 C 9,4 C 82 % 0 lf 1020,2 hPa 0,0 l/m 0 min 0 min 4 W/m 2,1 km/h (1 Bft) 95,74 %
12.07.2017 23:22 12,8 C 10,6 C 9,4 C 82 % 0 lf 1020,1 hPa 0,0 l/m 0 min 0 min 4 W/m 2,1 km/h (1 Bft) 95,74 %
12.07.2017 23:24 12,7 C 10,6 C 9,4 C 82 % 0 lf 1020,2 hPa 0,0 l/m 0 min 0 min 0 W/m 4,2 km/h (1 Bft) 95,65 %
12.07.2017 23:26 12,7 C 10,6 C 9,4 C 82 % 0 lf 1020,2 hPa 0,0 l/m 0 min 0 min 0 W/m 6,3 km/h (2 Bft) 91,49 %
12.07.2017 23:28 12,7 C 10,6 C 9,4 C 82 % 0 lf 1020,2 hPa 0,0 l/m 0 min 0 min 0 W/m 6,3 km/h (2 Bft) 93,62 %
12.07.2017 23:30 12,6 C 10,6 C 9,4 C 82 % 0 lf 1020,3 hPa 0,0 l/m 0 min 0 min 5 W/m 6,3 km/h (2 Bft) 93,62 %
12.07.2017 23:32 12,6 C 10,6 C 9,4 C 82 % 0 lf 1020,3 hPa 0,0 l/m 0 min 0 min 3 W/m 2,1 km/h (1 Bft) 93,62 %
12.07.2017 23:34 12,5 C 10,6 C 9,4 C 82 % 0 lf 1020,4 hPa 0,0 l/m 0 min 0 min 3 W/m 2,1 km/h (1 Bft) 95,74 %
12.07.2017 23:36 12,5 C 10,0 C 9,4 C 83 % 0 lf 1020,4 hPa 0,0 l/m 0 min 0 min 0 W/m 2,1 km/h (1 Bft) 97,83 %
12.07.2017 23:38 12,4 C 10,0 C 9,4 C 83 % 0 lf 1020,4 hPa 0,0 l/m 0 min 0 min 0 W/m 4,2 km/h (1 Bft) 93,62 %
12.07.2017 23:40 12,4 C 10,0 C 9,4 C 83 % 0 lf 1020,4 hPa 0,0 l/m 0 min 0 min 0 W/m 0,0 km/h (0 Bft) 95,74 %
12.07.2017 23:42 12,3 C 10,0 C 9,4 C 83 % 0 lf 1020,4 hPa 0,0 l/m 0 min 0 min 0 W/m 0,0 km/h (0 Bft) 95,74 %
12.07.2017 23:44 12,3 C 10,0 C 9,4 C 83 % 0 lf 1020,4 hPa 0,0 l/m 0 min 0 min 2 W/m 2,1 km/h (1 Bft) 95,74 %
12.07.2017 23:46 12,3 C 10,0 C 9,4 C 83 % 0 lf 1020,5 hPa 0,0 l/m 0 min 0 min 2 W/m 0,0 km/h (0 Bft) 95,74 %
12.07.2017 23:48 12,2 C 10,0 C 9,4 C 83 % 0 lf 1020,6 hPa 0,0 l/m 0 min 0 min 0 W/m 2,1 km/h (1 Bft) 95,65 %
12.07.2017 23:50 12,2 C 10,0 C 9,4 C 83 % 0 lf 1020,5 hPa 0,0 l/m 0 min 0 min 2 W/m 0,0 km/h (0 Bft) 95,74 %
12.07.2017 23:52 12,2 C 10,0 C 9,4 C 83 % 0 lf 1020,6 hPa 0,0 l/m 0 min 0 min 5 W/m 2,1 km/h (1 Bft) 97,87 %
12.07.2017 23:54 12,1 C 10,0 C 9,4 C 84 % 0 lf 1020,6 hPa 0,0 l/m 0 min 0 min 0 W/m 0,0 km/h (0 Bft) 97,87 %
12.07.2017 23:56 12,1 C 10,0 C 9,4 C 84 % 0 lf 1020,6 hPa 0,0 l/m 0 min 0 min 0 W/m 0,0 km/h (0 Bft) 91,49 %
12.07.2017 23:58 12,0 C 10,0 C 9,4 C 84 % 0 lf 1020,6 hPa 0,0 l/m 0 min 0 min 0 W/m 0,0 km/h (0 Bft) 97,87 %
_ Min-Zeit 23:58 23:36 23:16 20:24 15:46 12:46 - - - - 01:54 01:06
Minimum _ 12,0 C 10,0 C 9,4 C 73 % 0 lf 1004,3 hPa - - - - 0,0 km/h (0 Bft) 84,78 %
_ Max-Zeit 00:00 15:54 15:54 09:42 00:28 23:48 13:30 19:10 06:10 15:56 13:26 00:00
Maximum _ 18,4 C 19,4 C 20,0 C 98 % 15 lf 1020,6 hPa 0,8 l/m 5 min 4 min 655 W/m 50,2 km/h
W-SW (7 Bft)
100,00 %
Durchschnitt _ 16,4 C 16,0 C 15,2 C 91 % 8 lf 1010,3 hPa #22,2 l/m #2:02 h #10:56 h 112 W/m 15,2 km/h (3 Bft) 96,28 %
© 2017 W. Hausmann